Laatste waarneming: 21:05
Temperatuur:11,2°C
Dauwpunt:5,6°C
Rel. vocht:68,0%
Natte-bol:8,5°C
Wind (gem. 10 min.):5,6 m/s
Wind (max. 10 min.):1.7E+308 m/s
Windrichting:31°
Neerslagsom:0,0 mm
Neerslagintensiteit:0,0 mm/u
Luchtdruk:1012,1 hPa
Straling:12,0 W/m2
 
Maximumtemp.:15,8°C (15:09)
Minimumtemp.:11,2°C (21:05)
Hoogste windstoot:11,6 m/s (17:29)


Bekijk de verwachting.

Bekijk de grafieken.
Bekijk het weekoverzicht.
Bekijk het maandoverzicht.
Bekijk het jaaroverzicht.
Dagtabel
Tijd Temp. Dauwp. Natte-bol Rel. Hum. Windsnelh. Windricht. Windstoot Neerslag Straling Luchtdruk
 
21:05 11,2 5,6 8,5 68,0 5,6 31 - 0,0 12 1.012,1
21:04 11,3 5,6 8,6 68,0 5,7 54 - 0,0 12 1.012,1
21:03 11,3 5,6 8,6 68,0 5,9 61 - 0,0 12 1.012,2
21:02 11,3 5,7 8,6 68,2 5,2 41 - 0,0 13 1.012,1
21:01 11,3 5,9 8,8 69,0 4,3 51 - 0,0 14 1.012,1
21:00 11,3 5,9 8,8 69,0 3,5 30 - 0,0 16 1.012,1
 
20:59 11,3 5,9 8,8 69,0 3,3 55 - 0,0 16 1.012,1
20:58 11,3 5,9 8,8 69,0 3,1 53 - 0,0 17 1.012,1
20:57 11,3 5,9 8,7 69,0 3,1 36 - 0,0 18 1.012,1
20:56 11,3 5,9 8,7 68,8 3,3 60 - 0,0 19 1.012,2
20:55 11,3 5,7 8,7 68,0 4,1 42 - 0,0 20 1.012,2
20:54 11,3 5,7 8,7 68,0 4,7 41 - 0,0 23 1.012,2
20:53 11,3 5,7 8,7 68,0 5,2 49 - 0,0 25 1.012,2
20:52 11,3 5,7 8,7 68,0 5,2 49 - 0,0 25 1.012,2
20:51 11,3 5,7 8,7 68,0 4,3 46 - 0,0 25 1.012,2
20:50 11,3 5,7 8,7 68,0 3,9 345 - 0,0 26 1.012,2
20:49 11,3 5,7 8,7 68,0 4,3 43 - 0,0 26 1.012,2
20:48 11,4 5,7 8,7 68,0 5,1 31 - 0,0 26 1.012,3
20:47 11,4 5,8 8,7 68,0 5,4 45 - 0,0 28 1.012,2
20:46 11,4 5,8 8,8 68,0 5,3 51 - 0,0 28 1.012,3
20:45 11,5 5,8 8,8 68,0 4,6 37 - 0,0 28 1.012,3
20:44 11,5 5,8 8,8 68,0 4,3 53 - 0,0 29 1.012,3
20:43 11,5 5,9 8,8 68,0 4,9 34 - 0,0 31 1.012,3
20:42 11,5 5,9 8,9 68,0 5,1 51 - 0,0 33 1.012,3
20:41 11,6 5,9 8,9 68,0 4,8 67 - 0,0 33 1.012,3
20:40 11,6 5,9 8,9 68,0 4,9 36 - 0,0 34 1.012,2
20:39 11,6 6,0 8,9 68,0 5,1 44 - 0,0 36 1.012,2
20:38 11,6 6,0 8,9 68,0 5,0 45 - 0,0 37 1.012,3
20:37 11,6 6,0 8,9 68,0 4,6 63 - 0,0 39 1.012,3
20:36 11,6 6,0 8,9 68,0 4,3 29 - 0,0 44 1.012,3
20:35 11,7 6,0 9,0 68,0 4,3 47 - 0,0 51 1.012,3
20:34 11,7 6,0 9,0 68,0 4,5 22 - 0,0 52 1.012,3
20:33 11,7 6,0 9,0 68,0 4,9 40 - 0,0 54 1.012,3
20:32 11,7 6,0 9,0 68,0 5,0 58 - 0,0 55 1.012,3
20:31 11,7 6,0 9,0 68,0 4,9 41 - 0,0 55 1.012,3
20:30 11,7 6,0 9,0 68,0 4,6 20 - 0,0 51 1.012,3
20:29 11,6 6,0 8,9 68,0 4,0 35 - 0,0 49 1.012,3
20:28 11,6 6,0 8,9 68,0 3,4 46 - 0,0 51 1.012,3
20:27 11,6 5,8 8,8 67,1 3,6 49 - 0,0 54 1.012,4
20:26 11,7 5,8 8,9 67,0 4,8 83 - 0,0 51 1.012,4
20:25 11,7 5,8 8,9 67,0 5,7 49 - 0,0 50 1.012,4
20:24 11,7 6,0 9,0 67,6 6,2 48 - 0,0 40 1.012,5
20:23 11,8 6,1 9,1 68,0 5,6 41 - 0,0 35 1.012,4
20:22 11,8 6,1 9,1 68,0 5,1 39 - 0,0 34 1.012,4
20:21 11,8 6,2 9,1 68,0 5,0 35 - 0,0 34 1.012,3
20:20 11,8 6,2 9,1 68,0 5,4 51 - 0,0 32 1.012,4
20:19 11,9 6,2 9,2 68,0 5,2 63 - 0,0 33 1.012,5
20:18 11,9 6,4 9,2 68,6 4,7 46 - 0,0 32 1.012,4
20:17 11,9 6,5 9,3 69,0 4,3 38 - 0,0 32 1.012,4
20:16 11,9 6,4 9,3 68,9 3,7 45 - 0,0 32 1.012,3
20:15 11,9 6,3 9,2 68,0 3,1 55 - 0,0 36 1.012,4
20:14 11,9 6,3 9,2 68,0 3,2 16 - 0,0 40 1.012,4
20:13 11,9 6,3 9,2 68,0 4,3 59 - 0,0 42 1.012,4
20:12 12,0 6,3 9,3 68,0 5,3 36 - 0,0 40 1.012,4
20:11 12,0 6,5 9,4 68,8 5,5 40 - 0,0 42 1.012,4
20:10 12,0 6,6 9,4 69,0 5,1 70 - 0,0 43 1.012,4
20:09 12,1 6,6 9,5 69,0 4,7 63 - 0,0 44 1.012,4
20:08 12,1 6,6 9,5 69,0 4,7 36 - 0,0 44 1.012,4
20:07 12,1 6,6 9,5 69,0 5,2 30 - 0,0 42 1.012,3
20:06 12,1 6,5 9,4 68,4 5,5 24 - 0,0 45 1.012,4
20:05 12,1 6,5 9,4 68,0 5,8 12 - 0,0 55 1.012,3
20:04 12,2 6,5 9,4 68,0 6,5 31 - 0,0 67 1.012,3
20:03 12,2 6,6 9,5 68,2 6,8 28 - 0,0 76 1.012,3
20:02 12,2 6,8 9,6 69,0 6,3 35 - 0,0 75 1.012,2
20:01 12,2 6,7 9,5 68,5 5,4 30 - 0,0 70 1.012,3
20:00 12,2 6,7 9,6 68,7 5,4 32 - 0,0 84 1.012,3
 
19:59 12,2 6,8 9,6 69,0 5,8 24 - 0,0 133 1.012,3
19:58 12,2 6,8 9,6 69,0 5,8 48 - 0,0 134 1.012,3
19:57 12,2 6,8 9,6 69,0 5,3 14 - 0,0 135 1.012,3
19:56 12,2 6,8 9,6 69,0 4,9 44 - 0,0 126 1.012,3
19:55 12,2 6,8 9,6 69,0 5,3 57 - 0,0 115 1.012,3
19:54 12,3 6,9 9,7 69,7 5,5 24 - 0,0 108 1.012,3
19:53 12,3 7,0 9,8 70,0 5,2 9 - 0,0 88 1.012,3
19:52 12,2 7,0 9,7 70,0 4,6 55 - 0,0 105 1.012,3
19:51 12,2 6,9 9,7 69,8 4,5 45 - 0,0 136 1.012,2
19:50 12,2 6,8 9,6 69,0 4,6 3 - 0,0 105 1.012,2
19:49 12,2 6,8 9,6 69,0 4,8 57 - 0,0 98 1.012,2
19:48 12,2 6,8 9,6 69,0 5,2 40 - 0,0 82 1.012,2
19:47 12,2 6,8 9,6 69,0 5,2 50 - 0,0 76 1.012,2
19:46 12,2 6,8 9,6 69,0 5,5 5 - 0,0 79 1.012,2
19:45 12,3 6,9 9,7 69,3 6,2 33 - 0,0 86 1.012,2
19:44 12,3 7,0 9,8 70,0 6,4 28 - 0,0 133 1.012,2
19:43 12,3 7,1 9,8 70,0 6,0 21 - 0,0 102 1.012,2
19:42 12,3 7,1 9,8 70,0 5,8 15 - 0,0 95 1.012,2
19:41 12,4 7,1 9,9 70,0 6,1 32 - 0,0 96 1.012,2
19:40 12,4 7,1 9,9 70,0 6,4 42 - 0,0 95 1.012,2
19:39 12,4 7,1 9,9 70,0 6,1 50 - 0,0 91 1.012,2
19:38 12,4 7,1 9,9 70,0 5,5 33 - 0,0 87 1.012,2
19:37 12,5 7,2 9,9 70,0 5,7 36 - 0,0 83 1.012,2
19:36 12,5 7,2 10,0 70,0 5,9 28 9,4 0,0 82 1.012,2
19:35 12,5 7,3 10,0 70,0 6,0 47 - 0,0 85 1.012,2
19:34 12,6 7,3 10,1 70,0 5,7 29 - 0,0 86 1.012,2
19:33 12,6 7,4 10,1 70,0 6,4 355 9,4 0,0 86 1.012,2
19:32 12,7 7,4 10,1 70,0 6,2 2 9,4 0,0 101 1.012,2
19:31 12,7 7,5 10,2 70,0 6,3 50 9,4 0,0 106 1.012,2
19:30 12,8 7,5 10,2 70,0 6,7 27 - 0,0 108 1.012,3
19:29 12,8 7,4 10,2 69,1 6,8 32 - 0,0 90 1.012,2
19:28 12,9 7,4 10,2 69,0 6,8 355 - 0,0 88 1.012,2
19:27 12,9 7,5 10,3 69,0 6,3 28 - 0,0 87 1.012,2
19:26 12,9 7,5 10,3 69,0 5,6 12 - 0,0 86 1.012,2
19:25 13,0 7,5 10,3 69,0 5,1 350 - 0,0 83 1.012,2
19:24 13,0 7,3 10,2 68,2 3,6 345 - 0,0 107 1.012,2
19:23 13,0 7,5 10,3 69,0 4,4 86 - 0,0 190 1.012,2
19:22 13,0 7,6 10,4 69,0 6,0 26 - 0,0 193 1.012,2
19:21 13,1 7,6 10,4 69,0 6,9 9 - 0,0 193 1.012,1
19:20 13,1 7,6 10,4 69,0 6,3 36 - 0,0 198 1.012,2
19:19 13,1 7,6 10,4 69,0 5,9 22 - 0,0 200 1.012,2
19:18 13,1 7,6 10,4 69,0 6,1 5 - 0,0 197 1.012,3
19:17 13,1 7,6 10,4 69,0 6,2 3 - 0,0 183 1.012,3
19:16 13,1 7,6 10,4 69,0 6,0 350 - 0,0 181 1.012,3
19:15 13,1 7,6 10,4 69,0 5,3 355 - 0,0 188 1.012,3
19:14 13,1 7,6 10,4 69,0 5,4 39 - 0,0 127 1.012,2
19:13 13,1 7,5 10,4 68,3 5,5 7 - 0,0 163 1.012,2
19:12 13,1 7,4 10,3 68,0 5,8 337 - 0,0 182 1.012,3
19:11 13,1 7,2 10,2 67,1 5,8 8 - 0,0 178 1.012,3
19:10 13,2 7,2 10,2 67,0 6,4 33 - 0,0 187 1.012,3
19:09 13,2 7,3 10,3 67,4 6,5 10 - 0,0 199 1.012,3
19:08 13,2 7,5 10,4 68,0 6,4 34 - 0,0 199 1.012,3
19:07 13,2 7,5 10,4 68,0 5,8 355 - 0,0 201 1.012,2
19:06 13,2 7,5 10,4 68,0 4,2 329 - 0,0 204 1.012,3
19:05 13,2 7,5 10,4 68,0 4,2 80 - 0,0 209 1.012,2
19:04 13,2 7,5 10,4 68,0 5,7 23 9,4 0,0 213 1.012,2
19:03 13,2 7,5 10,4 68,0 6,7 42 - 0,0 212 1.012,3
19:02 13,2 7,5 10,4 68,0 6,8 22 - 0,0 201 1.012,3
19:01 13,3 7,6 10,5 68,0 6,7 56 9,8 0,0 187 1.012,3
19:00 13,3 7,6 10,5 68,0 6,3 12 - 0,0 163 1.012,3
 
18:59 13,3 7,6 10,5 67,9 6,6 1 9,8 0,0 178 1.012,4
18:58 13,3 7,4 10,4 67,0 5,7 330 10,7 0,0 219 1.012,4
18:57 13,4 7,5 10,5 67,5 5,5 61 9,4 0,0 226 1.012,4
18:56 13,4 7,7 10,6 68,0 7,1 48 - 0,0 217 1.012,4
18:55 13,4 7,7 10,6 68,0 6,7 22 9,8 0,0 224 1.012,3
18:54 13,4 7,7 10,6 68,0 6,2 345 - 0,0 245 1.012,3
18:53 13,4 7,7 10,6 68,0 5,8 38 - 0,0 264 1.012,4
18:52 13,4 7,7 10,6 68,0 6,3 53 10,3 0,0 260 1.012,4
18:51 13,4 7,7 10,6 68,0 6,7 355 - 0,0 267 1.012,3
18:50 13,4 7,7 10,6 68,0 7,2 12 10,3 0,0 278 1.012,3
18:49 13,4 7,7 10,6 68,0 7,0 355 10,3 0,0 280 1.012,4
18:48 13,4 7,7 10,6 68,0 6,6 345 - 0,0 270 1.012,5
18:47 13,5 7,7 10,6 68,0 6,3 30 - 0,0 256 1.012,5
18:46 13,5 7,7 10,6 68,0 6,6 359 - 0,0 270 1.012,5
18:45 13,5 7,8 10,7 68,0 6,9 1 - 0,0 198 1.012,4
18:44 13,5 7,8 10,7 68,0 6,8 8 - 0,0 189 1.012,4
18:43 13,6 7,8 10,7 68,0 7,0 355 - 0,0 234 1.012,5
18:42 13,6 7,9 10,8 68,0 7,2 24 11,6 0,0 259 1.012,6
18:41 13,6 7,7 10,7 67,0 7,1 19 - 0,0 218 1.012,5
18:40 13,7 7,7 10,7 67,0 6,8 16 - 0,0 193 1.012,5
18:39 13,7 7,8 10,8 67,0 6,7 9 - 0,0 187 1.012,5
18:38 13,8 7,8 10,8 67,0 6,6 30 - 0,0 205 1.012,5
18:37 13,8 8,0 10,9 67,8 6,2 36 - 0,0 216 1.012,6
18:36 13,8 8,0 10,9 68,0 5,6 1 - 0,0 357 1.012,6
18:35 13,7 8,0 10,9 68,0 5,1 37 - 0,0 336 1.012,6
18:34 13,7 7,9 10,8 67,6 5,0 5 - 0,0 351 1.012,5
18:33 13,8 7,8 10,8 67,0 5,2 66 - 0,0 228 1.012,5
18:32 13,8 8,0 10,9 67,7 5,8 11 - 0,0 198 1.012,6
18:31 13,8 8,1 11,0 68,0 6,3 27 - 0,0 183 1.012,6
18:30 13,8 8,1 11,0 68,0 6,2 9 - 0,0 214 1.012,6
18:29 13,8 8,1 11,0 68,0 6,0 355 - 0,0 257 1.012,6
18:28 13,8 8,1 11,0 68,0 5,9 9 - 0,0 295 1.012,7
18:27 13,8 8,1 11,0 68,0 6,2 31 - 0,0 303 1.012,7
18:26 13,8 8,1 11,0 68,0 6,4 14 - 0,0 450 1.012,7
18:25 13,8 8,1 11,0 68,0 6,2 26 - 0,0 450 1.012,7
18:24 13,8 8,1 11,0 68,0 6,3 9 - 0,0 450 1.012,7
18:23 13,8 8,1 11,0 68,3 6,5 26 - 0,0 450 1.012,8
18:22 13,8 8,2 11,0 68,6 6,0 28 - 0,0 268 1.012,8
18:21 13,8 8,0 10,9 68,0 5,1 350 - 0,0 210 1.012,8
18:20 13,8 8,0 10,9 68,0 3,9 55 - 0,0 270 1.012,8
18:19 13,8 8,1 11,0 68,0 3,8 115 - 0,0 241 1.012,8
18:18 13,8 7,9 10,9 67,2 3,8 355 - 0,0 180 1.012,8
18:17 13,9 8,2 11,0 68,0 5,0 66 - 0,0 169 1.012,9
18:16 14,0 8,2 11,1 68,0 5,3 2 - 0,0 152 1.012,9
18:15 14,0 8,1 11,1 67,4 6,0 0 - 0,0 144 1.012,9
18:14 14,0 8,1 11,1 67,0 5,9 355 - 0,0 137 1.012,9
18:13 14,1 7,9 11,0 66,1 6,1 359 - 0,0 134 1.012,8
18:12 14,1 7,9 11,0 66,0 5,7 350 - 0,0 135 1.012,8
18:11 14,2 8,0 11,1 66,0 6,2 50 - 0,0 140 1.012,9
18:10 14,2 8,1 11,1 66,0 7,2 49 10,3 0,0 139 1.013,0
18:09 14,3 8,1 11,2 66,0 7,1 42 - 0,0 149 1.013,0
18:08 14,3 8,1 11,2 66,0 6,1 41 - 0,0 239 1.012,9
18:07 14,3 8,2 11,2 66,1 5,4 350 - 0,0 239 1.012,9
18:06 14,4 8,4 11,4 67,0 5,7 61 - 0,0 322 1.013,0
18:05 14,4 8,4 11,4 66,7 6,3 25 9,4 0,0 390 1.013,0
18:04 14,4 8,4 11,4 66,5 6,8 359 - 0,0 370 1.013,0
18:03 14,4 8,3 11,4 66,4 6,6 25 - 0,0 378 1.013,0
18:02 14,5 8,3 11,3 66,0 6,4 5 - 0,0 384 1.013,1
18:01 14,5 8,3 11,4 66,1 6,7 355 - 0,0 388 1.013,1
18:00 14,6 8,6 11,5 67,0 7,1 8 - 0,0 389 1.013,1
 
17:59 14,6 8,6 11,6 67,0 7,0 5 - 0,0 379 1.013,1
17:58 14,6 8,6 11,6 67,0 6,8 30 - 0,0 356 1.013,1
17:57 14,7 8,7 11,6 67,0 5,3 355 - 0,0 251 1.013,1
17:56 14,7 8,7 11,6 67,0 4,3 287 - 0,0 259 1.013,1
17:55 14,7 8,7 11,7 67,0 3,8 40 - 0,0 342 1.013,1
17:54 14,7 8,7 11,6 67,0 5,3 20 - 0,0 399 1.013,1
17:53 14,7 8,7 11,6 67,0 5,2 1 - 0,0 398 1.013,1
17:52 14,7 8,7 11,6 67,0 5,3 330 - 0,0 397 1.013,2
17:51 14,7 8,7 11,6 67,0 5,1 19 - 0,0 399 1.013,2
17:50 14,7 8,7 11,6 67,0 5,4 66 - 0,0 399 1.013,3
17:49 14,7 8,7 11,7 67,0 4,9 350 - 0,0 400 1.013,2
17:48 14,7 8,7 11,7 67,0 6,1 336 - 0,0 401 1.013,2
17:47 14,7 8,7 11,7 67,0 5,2 337 - 0,0 403 1.013,3
17:46 14,7 8,7 11,7 67,0 5,0 53 - 0,0 401 1.013,3
17:45 14,7 8,6 11,6 66,3 5,2 0 - 0,0 404 1.013,3
17:44 14,7 8,5 11,6 66,0 5,3 46 - 0,0 415 1.013,3
17:43 14,7 8,5 11,6 66,0 5,6 55 - 0,0 429 1.013,3
17:42 14,7 8,5 11,6 66,0 5,9 10 - 0,0 423 1.013,4
17:41 14,7 8,6 11,6 66,5 6,3 19 - 0,0 418 1.013,4
17:40 14,7 8,7 11,7 67,0 6,2 16 - 0,0 418 1.013,4
17:39 14,7 8,7 11,7 67,0 6,0 22 - 0,0 419 1.013,4
17:38 14,7 8,7 11,7 67,0 5,5 35 - 0,0 415 1.013,3
17:37 14,7 8,7 11,7 67,0 5,2 5 - 0,0 407 1.013,4
17:36 14,7 8,8 11,7 67,5 5,2 62 - 0,0 409 1.013,5
17:35 14,7 9,0 11,8 68,0 5,1 355 - 0,0 411 1.013,4
17:34 14,7 8,8 11,7 67,4 5,5 355 - 0,0 413 1.013,4
17:33 14,7 8,7 11,7 67,0 6,0 14 - 0,0 419 1.013,3
17:32 14,8 8,6 11,6 66,1 7,0 345 - 0,0 428 1.013,3
17:31 14,8 8,6 11,6 66,0 7,1 350 - 0,0 435 1.013,4
17:30 14,8 8,6 11,6 66,0 7,2 9 - 0,0 433 1.013,4
17:29 14,8 8,6 11,7 66,0 7,8 19 - 0,0 431 1.013,4
17:28 14,9 8,6 11,7 66,0 7,8 20 - 0,0 429 1.013,4
17:27 14,9 8,8 11,8 66,8 7,1 45 - 0,0 444 1.013,4
17:26 14,9 8,9 11,8 67,0 5,7 43 - 0,0 444 1.013,4
17:25 14,9 8,8 11,8 66,8 4,9 345 - 0,0 441 1.013,4
17:24 14,9 8,7 11,7 66,0 5,4 350 - 0,0 439 1.013,4
17:23 14,9 8,7 11,7 66,0 5,6 328 - 0,0 442 1.013,4
17:22 14,9 8,7 11,7 66,0 6,0 21 - 0,0 440 1.013,4
17:21 14,9 8,7 11,7 66,0 6,7 32 - 0,0 449 1.013,3
17:20 14,9 8,7 11,7 66,0 6,3 16 9,4 0,0 446 1.013,4
17:19 14,9 8,7 11,7 66,0 6,4 345 9,8 0,0 441 1.013,4
17:18 14,9 8,7 11,8 66,0 6,4 339 - 0,0 434 1.013,4
17:17 14,9 8,7 11,8 66,0 6,0 1 - 0,0 413 1.013,4
17:16 15,0 8,8 11,8 66,0 5,9 12 - 0,0 444 1.013,4
17:15 15,0 8,8 11,8 66,0 6,1 345 - 0,0 451 1.013,5
17:14 15,0 9,0 12,0 67,0 6,4 1 - 0,0 443 1.013,4
17:13 15,1 9,1 12,0 67,0 6,3 341 - 0,0 436 1.013,4
17:12 15,1 9,1 12,0 67,0 5,8 4 - 0,0 414 1.013,5
17:11 15,1 9,1 12,0 67,0 5,6 8 - 0,0 375 1.013,5
17:10 15,1 9,1 12,0 67,0 5,9 11 - 0,0 425 1.013,5
17:09 15,1 9,1 12,0 67,0 6,1 9 - 0,0 411 1.013,5
17:08 15,0 9,0 12,0 67,0 5,9 5 - 0,0 467 1.013,5
17:07 15,0 9,0 12,0 67,0 5,7 350 - 0,0 473 1.013,5
17:06 15,0 9,0 11,9 67,0 5,3 33 - 0,0 486 1.013,5
17:05 15,0 9,0 11,9 67,0 4,6 355 - 0,0 489 1.013,5
17:04 14,9 8,9 11,9 67,0 5,6 312 - 0,0 489 1.013,5
17:03 14,9 8,9 11,9 67,0 5,7 334 9,4 0,0 493 1.013,6
17:02 14,9 8,9 11,8 67,0 5,3 14 - 0,0 500 1.013,6
17:01 14,9 8,8 11,8 66,7 4,8 17 - 0,0 488 1.013,5
17:00 14,9 8,6 11,7 66,0 5,1 66 - 0,0 493 1.013,6
 
16:59 14,9 8,7 11,7 66,0 5,9 355 9,4 0,0 439 1.013,5
16:58 14,9 8,7 11,7 66,0 6,8 355 - 0,0 494 1.013,6
16:57 14,9 8,7 11,7 66,0 6,7 16 - 0,0 492 1.013,7
16:56 14,9 8,7 11,7 66,0 6,6 9 - 0,0 506 1.013,7
16:55 14,9 8,7 11,8 66,3 6,4 336 - 0,0 511 1.013,7
16:54 14,9 8,8 11,8 66,6 6,3 11 9,8 0,0 518 1.013,6
16:53 14,9 8,8 11,8 66,6 6,0 14 - 0,0 514 1.013,6
16:52 14,9 8,9 11,8 67,0 6,4 319 9,4 0,0 518 1.013,6
16:51 14,9 8,9 11,8 67,1 6,3 10 9,8 0,0 518 1.013,5
16:50 14,9 9,1 12,0 68,0 7,1 43 - 0,0 515 1.013,5
16:49 14,9 9,1 12,0 68,0 6,6 12 - 0,0 522 1.013,6
16:48 14,8 9,1 11,9 68,0 6,3 9 - 0,0 511 1.013,6
16:47 14,8 9,1 11,9 68,0 6,2 338 - 0,0 475 1.013,6
16:46 14,8 9,0 11,9 68,0 6,2 26 - 0,0 498 1.013,7
16:45 14,8 9,0 11,9 68,0 6,2 340 - 0,0 495 1.013,6
16:44 14,8 9,0 11,9 68,0 6,6 9 - 0,0 460 1.013,6
16:43 14,8 9,0 11,9 68,0 7,1 350 - 0,0 467 1.013,7
16:42 14,8 8,9 11,8 67,5 7,5 7 - 0,0 523 1.013,7
16:41 14,8 8,8 11,8 67,0 7,6 345 - 0,0 536 1.013,7
16:40 14,8 8,9 11,8 67,0 7,7 7 - 0,0 539 1.013,6
16:39 14,9 8,9 11,9 67,0 8,0 355 - 0,0 541 1.013,6
16:38 15,0 9,0 11,9 67,0 8,0 22 - 0,0 476 1.013,7
16:37 15,1 9,0 12,0 67,0 7,5 350 - 0,0 422 1.013,6
16:36 15,1 9,1 12,0 67,0 6,1 345 9,4 0,0 402 1.013,7
16:35 15,1 9,1 12,0 67,2 5,6 59 9,4 0,0 442 1.013,7
16:34 15,1 9,2 12,1 67,8 5,9 12 - 0,0 487 1.013,7
16:33 15,1 9,1 12,0 67,1 6,1 43 - 0,0 488 1.013,7
16:32 15,1 9,1 12,0 67,0 6,4 59 - 0,0 502 1.013,7
16:31 15,1 9,1 12,0 67,0 6,8 9 - 0,0 526 1.013,6
16:30 15,1 9,1 12,1 67,0 7,4 4 - 0,0 529 1.013,7
16:29 15,1 9,1 12,1 67,0 7,0 22 - 0,0 527 1.013,7
16:28 15,2 9,1 12,1 67,0 6,9 1 - 0,0 522 1.013,7
16:27 15,2 9,2 12,1 67,1 7,0 28 - 0,0 494 1.013,7
16:26 15,2 9,4 12,3 68,0 6,8 18 - 0,0 502 1.013,7
16:25 15,2 9,5 12,3 68,4 6,5 355 - 0,0 537 1.013,6
16:24 15,2 9,5 12,3 68,5 6,4 327 9,8 0,0 545 1.013,6
16:23 15,2 9,4 12,3 68,0 6,0 14 - 0,0 544 1.013,6
16:22 15,2 9,4 12,2 68,0 6,3 1 - 0,0 556 1.013,6
16:21 15,2 9,4 12,2 67,9 6,6 25 10,3 0,0 558 1.013,7
16:20 15,2 9,2 12,1 67,0 6,6 13 - 0,0 559 1.013,7
16:19 15,2 9,2 12,1 67,0 6,8 355 - 0,0 561 1.013,8
16:18 15,2 9,2 12,1 67,0 6,6 355 9,8 0,0 562 1.013,8
16:17 15,2 9,4 12,2 67,7 5,6 48 - 0,0 580 1.013,8
16:16 15,2 9,4 12,3 68,0 4,5 321 - 0,0 581 1.013,7
16:15 15,2 9,2 12,2 67,1 5,2 66 - 0,0 581 1.013,8
16:14 15,3 9,2 12,2 67,0 6,9 47 10,3 0,0 563 1.013,8
16:13 15,3 9,3 12,2 67,0 7,2 17 - 0,0 507 1.013,9
16:12 15,3 9,3 12,2 67,0 7,2 36 10,3 0,0 450 1.013,8
16:11 15,3 9,3 12,3 67,0 6,8 11 - 0,0 523 1.013,8
16:10 15,4 9,3 12,3 67,0 6,8 350 - 0,0 542 1.013,8
16:09 15,4 9,4 12,3 66,8 7,1 341 - 0,0 568 1.013,8
16:08 15,4 9,3 12,3 66,4 7,1 345 - 0,0 579 1.013,7
16:07 15,5 9,4 12,4 67,0 7,1 15 - 0,0 585 1.013,8
16:06 15,5 9,5 12,4 67,0 7,0 12 - 0,0 587 1.013,8
16:05 15,5 9,5 12,4 67,0 6,8 355 - 0,0 583 1.013,8
16:04 15,6 9,5 12,4 67,0 6,6 12 - 0,0 578 1.013,8
16:03 15,6 9,4 12,4 66,2 6,8 355 - 0,0 577 1.013,8
16:02 15,5 9,5 12,4 67,0 6,9 12 - 0,0 582 1.013,8
16:01 15,6 9,4 12,4 66,5 6,6 20 - 0,0 582 1.013,8
16:00 15,6 9,3 12,3 66,0 5,8 345 9,4 0,0 582 1.013,9
 
15:59 15,6 9,1 12,2 65,2 6,0 58 - 0,0 585 1.013,8
15:58 15,6 9,3 12,3 65,9 6,4 9 - 0,0 585 1.013,8
15:57 15,6 9,1 12,2 65,0 6,8 350 - 0,0 587 1.013,8
15:56 15,6 9,1 12,2 65,0 6,0 355 9,4 0,0 590 1.013,9
15:55 15,6 9,2 12,3 65,5 6,2 45 - 0,0 589 1.014,0
15:54 15,6 9,3 12,3 66,0 6,1 9 - 0,0 591 1.013,9
15:53 15,6 9,3 12,3 66,0 6,3 47 - 0,0 594 1.013,9
15:52 15,6 9,4 12,4 66,0 6,4 15 - 0,0 593 1.014,0
15:51 15,6 9,4 12,4 66,0 6,5 2 - 0,0 592 1.014,0
15:50 15,7 9,4 12,4 66,0 6,1 359 9,4 0,0 595 1.013,8
15:49 15,7 9,4 12,4 66,0 6,4 47 10,7 0,0 594 1.013,9
15:48 15,7 9,4 12,5 66,0 6,6 1 - 0,0 598 1.014,0
15:47 15,7 9,4 12,5 66,0 5,6 12 9,4 0,0 602 1.014,0
15:46 15,7 9,4 12,5 66,0 5,4 80 - 0,0 605 1.013,9
15:45 15,7 9,4 12,4 65,8 5,0 18 - 0,0 605 1.013,9
15:44 15,7 9,2 12,3 65,0 5,7 345 - 0,0 605 1.014,0
15:43 15,7 9,2 12,3 65,0 5,9 345 - 0,0 595 1.014,1
15:42 15,7 9,2 12,3 65,0 6,6 14 - 0,0 596 1.014,1
15:41 15,7 9,2 12,3 65,0 6,9 5 - 0,0 606 1.013,9
15:40 15,6 9,1 12,3 64,9 6,3 5 - 0,0 608 1.014,0
15:39 15,6 8,9 12,1 64,0 5,8 359 - 0,0 610 1.014,0
15:38 15,6 8,9 12,1 64,0 5,8 359 - 0,0 612 1.014,0
15:37 15,6 8,8 12,1 63,4 6,3 5 - 0,0 618 1.014,0
15:36 15,7 8,9 12,1 63,7 6,7 340 - 0,0 619 1.014,1
15:35 15,7 9,0 12,2 64,0 6,7 355 - 0,0 618 1.014,2
15:34 15,7 8,9 12,2 64,0 5,1 355 - 0,0 615 1.014,2
15:33 15,6 8,9 12,1 64,0 5,2 80 - 0,0 605 1.014,1
15:32 15,6 8,9 12,1 64,0 5,2 26 - 0,0 607 1.014,2
15:31 15,6 8,9 12,1 64,0 5,5 345 - 0,0 617 1.014,1
15:30 15,6 8,7 12,0 63,1 5,2 3 - 0,0 619 1.014,1
15:29 15,7 8,7 12,0 63,1 5,9 43 - 0,0 626 1.014,1
15:28 15,7 9,0 12,2 64,0 6,5 355 - 0,0 629 1.014,1
15:27 15,7 9,0 12,2 64,0 6,4 29 - 0,0 628 1.014,1
15:26 15,7 9,0 12,2 64,0 6,1 355 - 0,0 625 1.014,1
15:25 15,7 9,0 12,2 64,0 6,0 332 - 0,0 624 1.014,2
15:24 15,7 9,0 12,2 64,0 5,4 350 - 0,0 620 1.014,2
15:23 15,7 9,0 12,2 64,0 3,9 326 - 0,0 621 1.014,2
15:22 15,7 9,0 12,2 64,0 3,7 66 - 0,0 631 1.014,2
15:21 15,7 9,1 12,3 64,4 4,7 330 - 0,0 630 1.014,3
15:20 15,8 9,3 12,4 65,0 5,8 12 - 0,0 628 1.014,2
15:19 15,8 9,3 12,4 65,0 5,9 327 - 0,0 629 1.014,1
15:18 15,8 9,3 12,4 65,0 5,5 355 - 0,0 627 1.014,1
15:17 15,8 9,3 12,4 65,0 5,3 23 - 0,0 607 1.014,2
15:16 15,8 9,3 12,4 65,0 5,3 44 - 0,0 592 1.014,2
15:15 15,8 9,2 12,3 64,7 5,5 64 - 0,0 619 1.014,2
15:14 15,8 9,2 12,3 64,5 5,6 45 - 0,0 628 1.014,3
15:13 15,8 9,3 12,4 65,0 6,2 9 - 0,0 596 1.014,3
15:12 15,8 9,1 12,3 64,2 6,2 19 - 0,0 607 1.014,2
15:11 15,8 9,1 12,3 63,9 5,6 359 - 0,0 611 1.014,2
15:10 15,8 8,9 12,2 63,3 5,3 26 - 0,0 619 1.014,2
15:09 15,8 9,2 12,4 64,4 5,2 62 - 0,0 617 1.014,1
15:08 15,8 9,3 12,4 65,0 4,7 350 - 0,0 622 1.014,2
15:07 15,8 9,2 12,3 64,3 4,5 49 - 0,0 626 1.014,3
15:06 15,8 9,1 12,3 64,0 5,0 32 - 0,0 630 1.014,2
15:05 15,8 9,1 12,3 64,0 5,5 26 - 0,0 635 1.014,2
15:04 15,8 9,1 12,3 64,0 5,7 20 - 0,0 622 1.014,3
15:03 15,8 9,1 12,3 64,0 5,6 11 - 0,0 632 1.014,3
15:02 15,8 9,2 12,3 64,6 5,8 350 - 0,0 621 1.014,4
15:01 15,8 9,3 12,4 65,0 5,0 355 - 0,0 619 1.014,4
15:00 15,7 9,2 12,3 65,0 4,5 56 - 0,0 623 1.014,3
 
14:59 15,7 9,1 12,3 64,7 3,7 47 - 0,0 625 1.014,3
14:58 15,7 9,0 12,2 64,0 4,4 324 - 0,0 632 1.014,4
14:57 15,7 9,0 12,2 64,0 5,3 2 - 0,0 641 1.014,3
14:56 15,7 9,0 12,2 64,0 5,6 20 - 0,0 639 1.014,3
14:55 15,6 8,7 12,0 63,3 5,4 2 - 0,0 613 1.014,4
14:54 15,6 8,5 11,9 62,2 5,3 338 - 0,0 616 1.014,5
14:53 15,6 8,4 11,9 62,0 5,7 33 - 0,0 625 1.014,5
14:52 15,6 8,4 11,9 62,0 5,7 14 - 0,0 630 1.014,5
14:51 15,6 8,4 11,9 62,0 5,4 18 - 0,0 634 1.014,5
14:50 15,6 8,4 11,9 62,0 4,9 355 - 0,0 638 1.014,4
14:49 15,6 8,6 11,9 62,8 4,7 67 - 0,0 640 1.014,5
14:48 15,6 8,6 12,0 63,0 4,8 0 - 0,0 638 1.014,6
14:47 15,6 8,6 11,9 63,0 5,4 20 - 0,0 642 1.014,6
14:46 15,6 8,6 11,9 63,0 5,7 16 - 0,0 644 1.014,6
14:45 15,6 8,6 11,9 63,0 5,9 350 - 0,0 643 1.014,5
14:44 15,6 8,6 11,9 63,0 5,6 1 - 0,0 647 1.014,6
14:43 15,5 8,6 11,9 63,0 5,5 41 - 0,0 650 1.014,5
14:42 15,5 8,5 11,9 63,0 4,4 23 - 0,0 653 1.014,6
14:41 15,4 8,3 11,7 62,2 4,2 326 - 0,0 644 1.014,6
14:40 15,4 8,5 11,8 63,0 4,4 35 - 0,0 636 1.014,6
14:39 15,4 8,6 11,9 63,5 5,1 337 - 0,0 636 1.014,7
14:38 15,5 8,8 12,0 64,0 5,0 14 - 0,0 637 1.014,6
14:37 15,4 8,7 12,0 64,0 5,3 61 - 0,0 632 1.014,6
14:36 15,4 8,7 11,9 64,0 4,9 13 - 0,0 643 1.014,6
14:35 15,3 8,6 11,9 63,8 4,9 12 - 0,0 644 1.014,7
14:34 15,3 8,5 11,8 63,4 4,9 32 - 0,0 634 1.014,7
14:33 15,3 8,6 11,9 64,0 5,4 350 - 0,0 641 1.014,8
14:32 15,3 8,6 11,9 64,0 5,4 13 - 0,0 630 1.014,8
14:31 15,3 8,6 11,9 64,0 5,2 53 - 0,0 631 1.014,8
14:30 15,3 8,8 12,0 64,9 5,1 345 - 0,0 644 1.014,7
14:29 15,3 8,6 11,9 64,0 5,5 326 - 0,0 654 1.014,9
14:28 15,3 8,7 11,9 64,4 4,4 0 - 0,0 654 1.014,9
14:27 15,3 8,8 11,9 65,0 4,7 42 - 0,0 652 1.014,8
14:26 15,2 8,8 11,9 65,0 4,7 43 - 0,0 644 1.014,8
14:25 15,2 8,7 11,8 65,0 4,6 345 - 0,0 646 1.014,9
14:24 15,1 8,9 11,9 66,0 4,8 3 - 0,0 644 1.014,9
14:23 15,1 8,9 11,9 66,0 4,8 18 - 0,0 644 1.014,8
14:22 15,1 8,9 11,9 66,0 5,0 24 - 0,0 642 1.014,8
14:21 15,0 8,8 11,9 66,0 5,2 355 - 0,0 626 1.014,8
14:20 15,0 8,9 11,9 66,7 4,9 345 - 0,0 593 1.014,9
14:19 14,9 8,9 11,9 67,0 4,5 53 - 0,0 578 1.014,9
14:18 14,9 8,9 11,8 67,0 4,6 16 - 0,0 588 1.014,9
14:17 14,9 8,8 11,8 66,6 4,7 25 - 0,0 596 1.014,8
14:16 14,8 8,7 11,7 66,4 5,0 26 - 0,0 595 1.014,8
14:15 14,8 8,8 11,8 67,0 5,3 2 - 0,0 598 1.014,9
14:14 14,8 8,8 11,8 67,0 5,7 1 - 0,0 589 1.015,0
14:13 14,8 8,8 11,8 67,0 5,7 20 - 0,0 605 1.015,0
14:12 14,8 8,6 11,6 66,1 5,3 350 - 0,0 598 1.014,9
14:11 14,8 8,7 11,7 66,3 5,7 307 - 0,0 593 1.014,9
14:10 14,8 8,7 11,7 66,6 5,5 355 - 0,0 575 1.015,0
14:09 14,9 8,8 11,8 66,6 5,8 12 - 0,0 570 1.015,0
14:08 14,9 8,9 11,8 67,0 5,8 359 - 0,0 572 1.015,0
14:07 14,9 8,7 11,7 66,1 5,7 355 - 0,0 582 1.015,0
14:06 14,8 8,6 11,7 66,0 5,6 331 - 0,0 582 1.015,0
14:05 14,8 8,7 11,7 66,3 5,4 326 - 0,0 582 1.015,0
14:04 14,8 8,8 11,7 67,0 4,9 350 - 0,0 590 1.015,0
14:03 14,8 8,8 11,7 67,0 4,1 345 - 0,0 589 1.015,1
14:02 14,7 8,7 11,7 67,0 3,6 21 - 0,0 559 1.015,1
14:01 14,7 8,7 11,6 67,1 4,6 66 - 0,0 547 1.015,1
14:00 14,7 8,9 11,8 68,0 5,0 37 - 0,0 563 1.015,1
 
13:59 14,6 8,8 11,7 67,7 5,1 355 - 0,0 586 1.015,0
13:58 14,6 8,6 11,6 67,0 5,1 45 - 0,0 586 1.014,9
13:57 14,6 8,6 11,5 67,0 4,5 26 - 0,0 584 1.014,9
13:56 14,5 8,5 11,5 67,0 5,0 321 - 0,0 588 1.014,9
13:55 14,5 8,5 11,5 67,0 5,6 3 - 0,0 594 1.015,0
13:54 14,4 8,5 11,4 67,0 5,6 11 - 0,0 578 1.015,0
13:53 14,4 8,4 11,4 67,0 5,2 38 - 0,0 545 1.014,9
13:52 14,4 8,5 11,4 67,5 5,4 345 - 0,0 522 1.015,0
13:51 14,4 8,8 11,6 68,7 5,9 5 - 0,0 506 1.015,0
13:50 14,4 8,9 11,6 69,0 5,4 345 - 0,0 511 1.015,0
13:49 14,4 8,8 11,6 69,0 5,4 328 - 0,0 520 1.015,0
13:48 14,4 8,9 11,7 69,4 6,0 329 - 0,0 561 1.014,9
13:47 14,4 9,1 11,7 70,0 6,2 345 - 0,0 573 1.015,0
13:46 14,4 9,0 11,7 70,0 5,7 355 - 0,0 569 1.015,0
13:45 14,3 9,0 11,7 70,0 5,3 310 - 0,0 582 1.015,0
13:44 14,3 9,0 11,6 70,0 4,6 345 - 0,0 576 1.015,1
13:43 14,3 8,9 11,6 70,0 4,8 34 - 0,0 552 1.015,1
13:42 14,2 8,9 11,6 70,0 5,3 350 - 0,0 535 1.015,0
13:41 14,2 8,9 11,6 70,0 6,1 332 - 0,0 533 1.015,0
13:40 14,2 8,9 11,6 70,0 6,3 5 - 0,0 576 1.015,0
13:39 14,2 8,9 11,6 70,0 6,6 350 - 0,0 562 1.015,0
13:38 14,2 8,9 11,6 70,0 6,4 345 - 0,0 587 1.015,0
13:37 14,2 8,9 11,6 70,0 5,9 338 - 0,0 558 1.015,1
13:36 14,2 8,9 11,6 70,0 5,9 317 - 0,0 559 1.015,0
13:35 14,2 8,9 11,6 70,0 6,4 1 - 0,0 549 1.015,0
13:34 14,2 8,8 11,5 70,0 6,3 355 - 0,0 566 1.015,0
13:33 14,2 8,8 11,5 70,0 6,0 16 - 0,0 562 1.015,1
13:32 14,2 9,0 11,6 70,9 5,6 13 - 0,0 536 1.015,1
13:31 14,2 9,2 11,8 72,0 5,3 334 - 0,0 535 1.015,2
13:30 14,1 9,1 11,7 71,7 5,1 25 - 0,0 557 1.015,1
13:29 14,1 9,0 11,6 71,0 5,4 350 - 0,0 548 1.015,1
13:28 14,1 9,0 11,6 71,0 6,2 31 - 0,0 568 1.015,1
13:27 14,1 9,0 11,6 71,0 6,3 5 - 0,0 559 1.015,1
13:26 14,1 9,2 11,7 71,9 6,6 328 - 0,0 559 1.015,2
13:25 14,1 9,1 11,7 71,8 6,3 345 - 0,0 557 1.015,2
13:24 14,1 9,0 11,6 71,0 6,2 345 - 0,0 573 1.015,2
13:23 14,1 9,0 11,6 71,0 6,3 328 - 0,0 584 1.015,1
13:22 14,1 9,0 11,6 71,0 6,8 5 - 0,0 590 1.015,2
13:21 14,1 9,0 11,6 71,0 7,1 345 - 0,0 626 1.015,1
13:20 14,2 9,1 11,7 71,0 7,2 341 - 0,0 639 1.015,2
13:19 14,2 9,1 11,7 71,0 7,2 345 - 0,0 576 1.015,2
13:18 14,2 9,1 11,7 71,0 6,3 330 - 0,0 536 1.015,2
13:17 14,2 9,0 11,6 71,0 5,1 355 - 0,0 545 1.015,3
13:16 14,1 9,0 11,6 71,0 5,1 28 - 0,0 550 1.015,4
13:15 14,1 9,2 11,7 71,8 5,8 355 - 0,0 550 1.015,2
13:14 14,1 9,0 11,6 71,2 6,2 345 - 0,0 519 1.015,3
13:13 14,1 9,2 11,7 72,0 5,9 339 - 0,0 563 1.015,4
13:12 14,0 9,0 11,6 71,7 4,5 345 - 0,0 606 1.015,4
13:11 14,0 8,9 11,5 71,0 4,5 58 - 0,0 582 1.015,4
13:10 14,0 8,9 11,5 71,0 5,1 2 - 0,0 573 1.015,4
13:09 14,0 8,9 11,5 71,2 6,0 350 - 0,0 548 1.015,4
13:08 14,0 9,1 11,6 72,0 6,4 319 - 0,0 550 1.015,4
13:07 14,0 9,1 11,6 71,8 6,5 334 - 0,0 556 1.015,4
13:06 14,0 8,9 11,5 71,0 6,6 341 - 0,0 554 1.015,3
13:05 14,0 8,9 11,5 71,0 6,2 328 - 0,0 553 1.015,3
13:04 14,0 8,9 11,5 71,0 5,3 7 - 0,0 569 1.015,3
13:03 14,0 8,9 11,5 71,0 4,7 312 - 0,0 539 1.015,3
13:02 14,0 8,9 11,5 71,0 4,7 18 - 0,0 476 1.015,3
13:01 14,0 8,9 11,5 71,0 4,6 300 - 0,0 484 1.015,3
13:00 14,1 8,9 11,6 71,0 4,8 18 - 0,0 506 1.015,3
 
12:59 14,1 9,1 11,6 71,7 5,6 27 - 0,0 506 1.015,3
12:58 14,1 9,0 11,6 71,3 4,3 323 - 0,0 506 1.015,4
12:57 14,1 8,9 11,5 71,0 3,4 79 - 0,0 499 1.015,4
12:56 14,0 8,9 11,5 71,0 3,6 345 - 0,0 469 1.015,4
12:55 14,0 8,9 11,5 71,0 4,8 340 - 0,0 476 1.015,3
12:54 14,0 9,0 11,5 71,5 4,8 12 - 0,0 464 1.015,3
12:53 14,0 9,1 11,6 72,0 5,1 355 - 0,0 434 1.015,4
12:52 14,0 9,1 11,6 72,0 4,8 22 - 0,0 547 1.015,3
12:51 13,9 9,0 11,6 72,0 4,5 338 - 0,0 517 1.015,4
12:50 13,9 9,0 11,5 72,0 5,2 315 - 0,0 462 1.015,4
12:49 13,9 9,0 11,5 72,0 5,5 336 - 0,0 460 1.015,4
12:48 13,9 9,0 11,5 72,0 5,8 355 - 0,0 459 1.015,4
12:47 13,9 9,0 11,5 72,0 5,8 350 - 0,0 459 1.015,4
12:46 13,8 8,9 11,5 72,0 5,6 335 - 0,0 461 1.015,4
12:45 13,8 9,1 11,5 72,9 5,3 15 - 0,0 483 1.015,4
12:44 13,8 8,9 11,4 72,0 4,9 13 - 0,0 537 1.015,5
12:43 13,7 8,8 11,4 72,0 5,1 321 - 0,0 552 1.015,5
12:42 13,7 8,9 11,4 72,5 4,9 338 - 0,0 554 1.015,6
12:41 13,7 9,0 11,4 73,0 5,4 32 - 0,0 571 1.015,6
12:40 13,7 9,1 11,5 73,8 5,6 359 - 0,0 576 1.015,6
12:39 13,7 9,2 11,5 74,0 5,1 51 - 0,0 511 1.015,6
12:38 13,7 9,0 11,4 73,0 5,2 340 - 0,0 452 1.015,5
12:37 13,7 9,0 11,4 73,0 6,7 338 - 0,0 452 1.015,4
12:36 13,7 9,0 11,4 73,0 7,2 328 - 0,0 458 1.015,3
12:35 13,7 9,0 11,5 73,0 7,2 332 - 0,0 441 1.015,4
12:34 13,7 9,1 11,5 73,1 7,3 326 - 0,0 510 1.015,5
12:33 13,8 9,3 11,6 74,0 7,2 333 - 0,0 589 1.015,6
12:32 13,8 9,3 11,7 73,8 6,8 330 - 0,0 584 1.015,5
12:31 13,8 9,1 11,5 73,0 6,7 359 - 0,0 523 1.015,4
12:30 13,8 9,1 11,6 73,0 6,7 337 - 0,0 522 1.015,4
12:29 13,8 9,1 11,6 73,0 6,0 329 - 0,0 531 1.015,4
12:28 13,9 9,2 11,6 73,0 6,0 36 - 0,0 509 1.015,4
12:27 13,9 9,2 11,7 73,0 5,7 43 - 0,0 443 1.015,5
12:26 13,9 9,2 11,7 73,3 4,9 322 - 0,0 448 1.015,6
12:25 13,9 9,3 11,7 73,6 4,0 1 - 0,0 525 1.015,6
12:24 13,9 9,3 11,7 73,6 4,2 53 - 0,0 545 1.015,5
12:23 13,9 9,4 11,7 74,0 4,8 350 - 0,0 544 1.015,5
12:22 13,8 9,3 11,7 74,0 5,6 340 - 0,0 570 1.015,5
12:21 13,8 9,3 11,6 74,0 5,3 307 - 0,0 586 1.015,5
12:20 13,7 9,2 11,6 74,0 4,5 340 - 0,0 586 1.015,5
12:19 13,7 9,2 11,5 74,0 4,3 2 - 0,0 553 1.015,6
12:18 13,6 9,1 11,5 74,0 4,1 21 - 0,0 536 1.015,6
12:17 13,6 9,1 11,5 74,0 4,0 79 - 0,0 411 1.015,5
12:16 13,6 9,1 11,4 74,0 4,2 350 - 0,0 411 1.015,5
12:15 13,6 9,3 11,6 75,0 5,1 8 - 0,0 429 1.015,6
12:14 13,5 9,2 11,5 75,0 5,1 21 - 0,0 420 1.015,6
12:13 13,5 9,1 11,4 74,6 5,7 341 - 0,0 448 1.015,7
12:12 13,5 9,2 11,5 74,8 6,7 332 - 0,0 499 1.015,5
12:11 13,5 9,2 11,5 75,0 6,6 338 - 0,0 487 1.015,5
12:10 13,5 9,0 11,4 74,2 6,4 345 - 0,0 471 1.015,5
12:09 13,5 9,0 11,4 74,2 6,4 355 - 0,0 457 1.015,5
12:08 13,5 9,2 11,5 75,0 6,7 336 - 0,0 471 1.015,4
12:07 13,5 9,2 11,5 75,0 6,6 345 - 0,0 490 1.015,4
12:06 13,5 9,3 11,5 75,6 6,5 3 - 0,0 511 1.015,4
12:05 13,5 9,4 11,6 76,0 5,7 338 - 0,0 526 1.015,5
12:04 13,4 9,3 11,5 76,0 5,1 33 - 0,0 527 1.015,5
12:03 13,4 9,3 11,5 76,0 5,4 340 - 0,0 418 1.015,4
12:02 13,3 9,2 11,4 76,0 6,5 355 - 0,0 309 1.015,4
12:01 13,4 9,3 11,5 76,0 6,5 355 - 0,0 384 1.015,5
12:00 13,4 9,3 11,5 76,0 6,2 324 - 0,0 491 1.015,5
 
11:59 13,3 9,2 11,5 76,0 5,9 335 - 0,0 503 1.015,5
11:58 13,3 9,3 11,5 76,1 5,9 1 - 0,0 487 1.015,5
11:57 13,4 9,5 11,6 77,0 6,2 315 - 0,0 476 1.015,5
11:56 13,4 9,5 11,6 77,0 6,7 345 - 0,0 465 1.015,5
11:55 13,4 9,5 11,6 77,0 6,6 335 - 0,0 474 1.015,5
11:54 13,4 9,5 11,6 77,0 6,3 319 - 0,0 442 1.015,5
11:53 13,4 9,5 11,6 77,0 5,4 338 - 0,0 497 1.015,4
11:52 13,4 9,5 11,6 77,0 5,3 34 - 0,0 573 1.015,4
11:51 13,4 9,5 11,6 77,2 5,8 315 - 0,0 573 1.015,4
11:50 13,4 9,6 11,7 77,7 6,7 341 - 0,0 581 1.015,5
11:49 13,3 9,4 11,6 77,0 6,7 339 - 0,0 582 1.015,5
11:48 13,3 9,4 11,5 77,0 6,6 334 - 0,0 547 1.015,5
11:47 13,3 9,4 11,5 77,0 6,2 334 - 0,0 539 1.015,5
11:46 13,2 9,3 11,5 77,0 6,3 350 - 0,0 486 1.015,5
11:45 13,3 9,4 11,5 77,3 6,4 341 - 0,0 536 1.015,5
11:44 13,2 9,5 11,6 78,0 6,4 319 - 0,0 601 1.015,5
11:43 13,2 9,5 11,6 78,0 6,1 328 - 0,0 583 1.015,5
11:42 13,2 9,5 11,6 78,0 6,2 345 - 0,0 538 1.015,5
11:41 13,2 9,5 11,5 78,0 6,6 334 - 0,0 512 1.015,5
11:40 13,2 9,4 11,5 78,0 7,1 338 - 0,0 532 1.015,4
11:39 13,2 9,4 11,5 78,0 7,0 321 - 0,0 561 1.015,5
11:38 13,1 9,4 11,5 78,0 6,8 328 - 0,0 564 1.015,5
11:37 13,2 9,4 11,5 78,0 6,8 335 - 0,0 497 1.015,5
11:36 13,2 9,4 11,5 78,0 6,9 335 - 0,0 481 1.015,5
11:35 13,1 9,4 11,5 78,0 7,0 314 - 0,0 455 1.015,5
11:34 13,1 9,4 11,5 78,0 6,9 332 - 0,0 501 1.015,5
11:33 13,1 9,3 11,4 78,0 6,9 334 - 0,0 520 1.015,5
11:32 13,1 9,3 11,4 78,0 6,5 321 - 0,0 515 1.015,5
11:31 13,1 9,3 11,4 78,0 6,3 334 - 0,0 516 1.015,5
11:30 13,0 9,3 11,4 78,0 6,4 350 - 0,0 530 1.015,5
11:29 13,0 9,3 11,3 78,0 6,6 324 - 0,0 508 1.015,6
11:28 13,0 9,3 11,3 77,9 6,8 355 - 0,0 513 1.015,6
11:27 13,0 9,1 11,2 77,0 6,7 345 - 0,0 513 1.015,6
11:26 13,0 9,1 11,2 77,0 6,8 319 - 0,0 496 1.015,6
11:25 13,0 9,2 11,3 77,8 6,7 345 - 0,0 468 1.015,6
11:24 13,0 9,3 11,3 78,0 6,8 345 - 0,0 460 1.015,6
11:23 13,0 9,3 11,4 78,0 6,4 332 - 0,0 490 1.015,6
11:22 13,0 9,3 11,4 78,0 6,1 305 - 0,0 494 1.015,6
11:21 13,1 9,3 11,4 78,0 6,0 332 - 0,0 484 1.015,5
11:20 13,1 9,3 11,3 77,6 6,4 332 - 0,0 442 1.015,6
11:19 13,1 9,2 11,3 77,0 6,7 340 - 0,0 512 1.015,6
11:18 13,1 9,2 11,3 77,0 6,7 328 - 0,0 473 1.015,6
11:17 13,1 9,0 11,2 76,1 6,4 332 - 0,0 425 1.015,5
11:16 13,2 9,1 11,3 76,0 6,5 294 - 0,0 444 1.015,6
11:15 13,2 9,0 11,3 75,7 6,3 326 - 0,0 461 1.015,6
11:14 13,2 8,9 11,2 75,0 6,7 4 - 0,0 440 1.015,6
11:13 13,2 9,0 11,2 75,0 6,8 339 - 0,0 441 1.015,6
11:12 13,3 8,9 11,2 74,2 7,1 340 - 0,0 413 1.015,6
11:11 13,4 8,9 11,2 74,0 7,0 332 - 0,0 386 1.015,6
11:10 13,4 8,9 11,2 73,8 6,9 323 - 0,0 431 1.015,6
11:09 13,3 8,6 11,1 72,7 6,9 325 - 0,0 450 1.015,7
11:08 13,3 8,2 10,8 71,0 6,9 329 - 0,0 433 1.015,7
11:07 13,2 7,6 10,5 68,7 6,6 350 - 0,0 445 1.015,7
11:06 13,2 7,4 10,4 68,0 6,3 345 - 0,0 446 1.015,7
11:05 13,1 7,4 10,3 68,0 6,1 355 - 0,0 442 1.015,7
11:04 13,1 7,4 10,3 68,0 5,4 336 - 0,0 430 1.015,7
11:03 13,1 7,4 10,3 68,0 4,8 338 - 0,0 437 1.015,8
11:02 13,1 7,4 10,3 68,0 5,0 345 - 0,0 441 1.015,7
11:01 13,1 7,4 10,3 68,0 5,8 345 - 0,0 413 1.015,7
11:00 13,1 7,4 10,3 68,0 6,1 322 - 0,0 435 1.015,7
 
10:59 13,1 7,4 10,3 68,0 5,9 345 - 0,0 427 1.015,8
10:58 13,1 7,4 10,3 68,0 5,7 324 - 0,0 386 1.015,8
10:57 13,1 7,4 10,3 68,0 5,5 5 - 0,0 374 1.015,8
10:56 13,1 7,4 10,3 68,0 5,6 345 - 0,0 388 1.015,8
10:55 13,0 7,3 10,2 68,0 5,4 350 - 0,0 397 1.015,8
10:54 13,0 7,3 10,2 68,0 5,0 345 - 0,0 367 1.015,8
10:53 13,0 7,3 10,2 68,0 4,6 355 - 0,0 372 1.015,9
10:52 13,0 7,4 10,2 68,3 4,6 7 - 0,0 389 1.015,9
10:51 13,0 7,5 10,3 69,0 4,0 345 - 0,0 420 1.015,9
10:50 13,0 7,4 10,2 68,5 3,8 58 - 0,0 426 1.015,8
10:49 12,9 7,2 10,2 68,0 4,6 332 - 0,0 405 1.015,8
10:48 12,9 7,4 10,3 68,9 5,8 355 - 0,0 435 1.015,8
10:47 12,9 7,4 10,2 68,9 5,9 345 - 0,0 469 1.015,8
10:46 12,9 7,2 10,1 68,0 5,5 345 - 0,0 457 1.015,8
10:45 12,9 7,2 10,1 68,0 5,4 30 - 0,0 461 1.015,8
10:44 12,9 7,2 10,1 68,0 5,4 340 - 0,0 401 1.015,8
10:43 12,9 7,2 10,2 68,0 6,2 322 - 0,0 407 1.015,8
10:42 12,9 7,2 10,1 68,0 6,1 332 - 0,0 410 1.015,8
10:41 12,9 7,2 10,2 68,0 5,9 345 - 0,0 448 1.015,8
10:40 12,9 7,3 10,2 68,3 6,1 323 - 0,0 447 1.015,7
10:39 13,0 7,5 10,3 69,0 6,4 339 - 0,0 442 1.015,7
10:38 13,0 7,5 10,3 69,0 6,3 335 - 0,0 459 1.015,7
10:37 13,0 7,5 10,3 69,0 5,8 336 - 0,0 468 1.015,8
10:36 13,0 7,3 10,2 68,2 5,7 355 - 0,0 483 1.015,8
10:35 13,0 7,5 10,3 69,0 5,8 340 - 0,0 489 1.015,7
10:34 13,0 7,5 10,3 69,0 5,7 345 - 0,0 476 1.015,8
10:33 13,0 7,5 10,3 69,0 5,5 341 - 0,0 468 1.015,9
10:32 13,0 7,5 10,3 69,0 5,6 355 - 0,0 426 1.015,8
10:31 13,0 7,3 10,2 68,2 5,7 345 - 0,0 405 1.015,8
10:30 12,9 7,2 10,2 68,0 5,7 323 - 0,0 394 1.015,8
10:29 12,9 7,2 10,2 68,0 5,2 338 - 0,0 424 1.015,8
10:28 12,9 7,2 10,2 68,0 3,8 317 - 0,0 428 1.015,8
10:27 12,9 7,2 10,2 68,0 3,5 53 - 0,0 392 1.015,8
10:26 13,0 7,3 10,2 68,0 4,1 11 - 0,0 366 1.015,8
10:25 13,0 7,4 10,3 68,8 4,8 338 - 0,0 443 1.015,8
10:24 13,0 7,5 10,3 69,0 5,0 359 - 0,0 458 1.015,9
10:23 13,0 7,5 10,3 69,0 5,0 325 - 0,0 450 1.015,8
10:22 13,0 7,5 10,3 69,0 5,2 303 - 0,0 463 1.015,8
10:21 13,0 7,4 10,2 68,5 5,4 355 - 0,0 426 1.015,8
10:20 13,0 7,3 10,2 68,0 5,7 350 - 0,0 455 1.015,8
10:19 12,9 7,2 10,1 67,9 5,5 338 - 0,0 461 1.015,8
10:18 12,9 7,0 10,0 67,0 4,9 341 - 0,0 456 1.015,8
10:17 12,9 7,0 10,0 67,0 4,2 317 - 0,0 466 1.015,8
10:16 12,8 6,9 10,0 67,0 4,0 355 - 0,0 435 1.015,8
10:15 12,8 6,9 9,9 67,0 4,1 327 - 0,0 457 1.015,9
10:14 12,8 6,9 9,9 67,0 4,3 2 - 0,0 445 1.015,8
10:13 12,8 6,9 9,9 67,0 4,0 350 - 0,0 431 1.015,9
10:12 12,8 6,7 9,8 66,1 3,9 33 - 0,0 404 1.015,8
10:11 12,8 6,6 9,8 66,0 4,1 6 - 0,0 403 1.015,8
10:10 12,8 6,6 9,8 66,0 4,7 345 - 0,0 419 1.015,8
10:09 12,8 6,6 9,8 66,0 4,8 28 - 0,0 421 1.015,8
10:08 12,8 6,6 9,8 66,1 4,8 359 - 0,0 398 1.015,8
10:07 12,8 6,9 9,9 67,0 4,6 40 - 0,0 396 1.015,8
10:06 12,8 6,9 9,9 67,2 5,0 55 - 0,0 378 1.015,9
10:05 12,8 7,1 10,0 68,0 4,5 39 - 0,0 359 1.015,9
10:04 12,8 7,1 10,0 68,0 3,9 53 - 0,0 359 1.015,8
10:03 12,8 7,1 10,0 68,0 3,3 25 - 0,0 336 1.015,8
10:02 12,7 7,1 10,0 68,0 3,3 350 - 0,0 282 1.015,8
10:01 12,7 6,8 9,9 67,1 3,7 49 - 0,0 162 1.015,9
10:00 12,7 6,8 9,8 67,0 4,2 39 - 0,0 162 1.015,9
 
09:59 12,7 6,8 9,8 67,0 4,1 15 - 0,0 144 1.015,9
09:58 12,7 6,8 9,8 67,0 4,4 336 - 0,0 118 1.015,8
09:57 12,7 6,9 9,9 67,6 4,5 9 - 0,0 113 1.015,8
09:56 12,7 7,0 10,0 68,0 4,4 17 - 0,0 113 1.015,8
09:55 12,7 7,0 10,0 68,0 4,0 27 - 0,0 109 1.015,8
09:54 12,7 7,0 10,0 68,0 4,3 341 - 0,0 105 1.015,8
09:53 12,7 7,0 10,0 68,0 4,8 350 - 0,0 108 1.015,8
09:52 12,7 7,0 10,0 68,0 5,1 359 - 0,0 106 1.015,9
09:51 12,7 7,0 9,9 68,0 5,0 345 - 0,0 97 1.015,9
09:50 12,7 6,8 9,8 67,2 4,4 0 - 0,0 92 1.015,8
09:49 12,7 6,8 9,8 67,0 4,1 12 - 0,0 90 1.015,8
09:48 12,7 6,8 9,8 67,0 4,6 40 - 0,0 89 1.015,8
09:47 12,7 6,8 9,8 67,0 5,0 50 - 0,0 88 1.015,8
09:46 12,7 6,9 9,8 67,5 4,5 28 - 0,0 88 1.015,8
09:45 12,7 7,0 9,9 68,0 4,8 4 - 0,0 90 1.015,8
09:44 12,6 7,0 9,9 68,0 4,9 11 - 0,0 87 1.015,8
09:43 12,6 7,2 10,0 69,0 4,0 24 - 0,0 85 1.015,7
09:42 12,6 7,1 10,0 69,0 3,4 295 - 0,0 83 1.015,7
09:41 12,6 7,1 9,9 69,0 3,6 34 - 0,0 82 1.015,7
09:40 12,6 7,1 9,9 69,0 4,1 329 - 0,0 79 1.015,7
09:39 12,6 7,1 9,9 69,0 3,7 24 - 0,0 79 1.015,7
09:38 12,5 7,1 9,9 69,0 4,4 57 - 0,0 79 1.015,8
09:37 12,5 7,0 9,9 69,0 5,2 64 - 0,0 78 1.015,8
09:36 12,5 7,1 9,9 69,0 5,4 47 - 0,0 76 1.015,8
09:35 12,5 7,1 9,9 69,4 4,9 39 - 0,0 75 1.015,8
09:34 12,5 7,2 10,0 70,0 4,2 14 - 0,0 70 1.015,8
09:33 12,5 7,2 10,0 70,0 4,0 29 - 0,0 69 1.015,8
09:32 12,5 7,2 10,0 70,0 3,7 46 - 0,0 71 1.015,8
09:31 12,5 7,2 10,0 70,0 3,4 359 - 0,0 212 1.015,8
09:30 12,5 7,3 10,0 70,3 3,6 345 - 0,0 376 1.015,9
09:29 12,5 7,4 10,1 71,0 4,3 51 - 0,0 376 1.015,9
09:28 12,5 7,4 10,0 71,0 4,5 22 - 0,0 377 1.015,9
09:27 12,4 7,4 10,0 71,0 3,9 359 - 0,0 392 1.015,8
09:26 12,4 7,4 10,0 71,0 3,7 70 - 0,0 389 1.015,8
09:25 12,4 7,4 10,0 71,0 3,7 23 - 0,0 388 1.015,8
09:24 12,4 7,4 10,0 71,0 4,4 345 - 0,0 386 1.015,9
09:23 12,4 7,5 10,1 71,5 4,9 16 - 0,0 385 1.015,9
09:22 12,5 7,8 10,2 72,6 5,1 27 - 0,0 379 1.015,9
09:21 12,5 7,8 10,3 73,0 5,0 16 - 0,0 379 1.015,9
09:20 12,5 7,8 10,3 73,0 4,3 14 - 0,0 375 1.015,9
09:19 12,5 7,6 10,1 72,0 3,6 39 - 0,0 371 1.015,9
09:18 12,4 7,6 10,1 72,0 3,4 33 - 0,0 369 1.015,9
09:17 12,4 7,6 10,1 72,0 3,7 51 - 0,0 367 1.016,0
09:16 12,4 7,7 10,2 72,6 3,7 71 - 0,0 365 1.016,0
09:15 12,5 7,8 10,3 73,0 3,0 12 - 0,0 360 1.016,0
09:14 12,4 7,8 10,2 73,0 2,6 96 - 0,0 357 1.016,0
09:13 12,4 7,8 10,2 73,0 3,0 50 - 0,0 355 1.016,0
09:12 12,4 7,8 10,2 73,0 3,4 49 - 0,0 355 1.016,0
09:11 12,5 7,8 10,3 73,0 4,1 355 - 0,0 352 1.016,0
09:10 12,5 7,8 10,3 73,0 4,2 43 - 0,0 350 1.016,1
09:09 12,5 7,9 10,3 73,0 4,3 45 - 0,0 347 1.016,1
09:08 12,5 7,8 10,3 73,0 4,2 36 - 0,0 344 1.016,1
09:07 12,6 7,9 10,4 73,2 4,6 29 - 0,0 343 1.016,1
09:06 12,6 8,1 10,5 74,0 4,6 55 - 0,0 342 1.016,1
09:05 12,6 8,0 10,4 73,5 4,0 36 - 0,0 338 1.016,1
09:04 12,6 7,9 10,4 73,0 3,9 345 - 0,0 337 1.016,1
09:03 12,6 7,9 10,4 73,0 3,9 36 - 0,0 333 1.016,0
09:02 12,6 7,9 10,4 73,0 4,0 338 - 0,0 330 1.016,1
09:01 12,6 7,9 10,4 73,0 4,7 332 - 0,0 329 1.016,1
09:00 12,6 7,8 10,3 72,6 3,8 350 - 0,0 328 1.016,1
 
08:59 12,6 7,7 10,2 72,0 3,8 61 - 0,0 327 1.016,1
08:58 12,6 7,7 10,3 72,0 4,2 350 - 0,0 325 1.016,0
08:57 12,6 7,8 10,3 72,0 5,1 16 - 0,0 322 1.016,0
08:56 12,6 7,9 10,4 72,9 5,1 16 - 0,0 318 1.016,0
08:55 12,7 7,8 10,3 72,0 4,9 47 - 0,0 317 1.016,0
08:54 12,6 7,8 10,3 72,0 4,5 7 - 0,0 318 1.015,9
08:53 12,6 7,8 10,3 72,0 4,5 7 - 0,0 314 1.015,9
08:52 12,6 7,6 10,2 71,3 4,4 355 - 0,0 313 1.016,0
08:51 12,6 7,5 10,2 71,0 4,4 6 - 0,0 310 1.016,0
08:50 12,6 7,5 10,2 71,0 4,6 355 - 0,0 309 1.016,0
08:49 12,6 7,6 10,2 71,0 4,1 12 - 0,0 307 1.016,0
08:48 12,6 7,6 10,2 71,0 4,3 76 - 0,0 302 1.016,0
08:47 12,7 7,6 10,2 71,0 4,2 31 - 0,0 301 1.016,0
08:46 12,6 7,6 10,2 71,0 4,4 359 - 0,0 299 1.016,0
08:45 12,6 7,6 10,2 71,0 3,9 8 - 0,0 298 1.016,0
08:44 12,6 7,5 10,2 70,9 4,2 52 - 0,0 296 1.016,0
08:43 12,6 7,3 10,0 70,0 4,9 32 - 0,0 294 1.016,0
08:42 12,6 7,3 10,0 70,0 5,0 32 - 0,0 292 1.016,0
08:41 12,6 7,3 10,0 70,0 4,8 13 - 0,0 290 1.016,0
08:40 12,5 7,3 10,0 70,0 4,2 30 - 0,0 290 1.015,9
08:39 12,5 7,2 10,0 70,0 3,8 45 - 0,0 288 1.015,9
08:38 12,5 7,2 9,9 70,0 4,3 345 - 0,0 286 1.015,9
08:37 12,5 7,2 9,9 70,0 5,3 350 - 0,0 284 1.015,8
08:36 12,4 7,2 9,9 70,0 5,1 350 - 0,0 279 1.015,8
08:35 12,4 7,2 9,9 70,0 4,8 338 - 0,0 278 1.015,8
08:34 12,4 7,1 9,9 70,0 4,3 355 - 0,0 275 1.015,8
08:33 12,4 7,1 9,9 70,0 4,1 39 - 0,0 272 1.015,8
08:32 12,4 7,1 9,8 70,0 4,3 341 - 0,0 263 1.015,8
08:31 12,3 7,1 9,8 70,0 4,8 355 - 0,0 263 1.015,8
08:30 12,3 7,1 9,8 70,0 5,1 5 - 0,0 264 1.015,8
08:29 12,3 7,1 9,8 70,0 5,0 14 - 0,0 262 1.015,8
08:28 12,3 7,1 9,8 70,0 4,5 30 - 0,0 259 1.015,8
08:27 12,3 7,0 9,8 70,1 3,8 27 - 0,0 258 1.015,8
08:26 12,3 7,2 9,9 71,0 3,7 61 - 0,0 255 1.015,8
08:25 12,3 7,2 9,9 71,0 4,4 11 - 0,0 253 1.015,8
08:24 12,3 7,3 9,9 71,5 5,0 17 - 0,0 251 1.015,8
08:23 12,3 7,4 10,0 72,0 4,9 9 - 0,0 251 1.015,8
08:22 12,3 7,4 10,0 72,0 4,5 42 - 0,0 250 1.015,8
08:21 12,2 7,4 9,9 72,0 4,3 47 - 0,0 245 1.015,8
08:20 12,2 7,4 9,9 72,0 4,7 355 - 0,0 239 1.015,8
08:19 12,2 7,4 9,9 72,0 4,8 30 - 0,0 207 1.015,7
08:18 12,2 7,3 9,9 72,0 4,5 16 - 0,0 221 1.015,8
08:17 12,2 7,3 9,9 72,0 4,2 9 - 0,0 209 1.015,8
08:16 12,2 7,3 9,9 72,0 4,4 40 - 0,0 202 1.015,8
08:15 12,2 7,5 10,0 73,0 4,6 355 - 0,0 201 1.015,7
08:14 12,2 7,5 10,0 73,0 4,5 28 - 0,0 214 1.015,8
08:13 12,2 7,5 10,0 73,0 4,5 16 - 0,0 213 1.015,8
08:12 12,2 7,5 10,0 73,0 4,5 359 - 0,0 207 1.015,8
08:11 12,2 7,5 10,0 73,0 5,0 51 - 0,0 192 1.015,8
08:10 12,2 7,5 10,0 73,0 5,3 20 - 0,0 201 1.015,7
08:09 12,2 7,5 10,0 73,0 5,2 54 - 0,0 205 1.015,7
08:08 12,2 7,5 10,0 73,0 4,7 37 - 0,0 210 1.015,7
08:07 12,2 7,6 10,0 73,5 5,0 355 - 0,0 205 1.015,7
08:06 12,2 7,7 10,1 74,0 4,9 43 - 0,0 204 1.015,7
08:05 12,2 7,7 10,1 74,0 4,6 355 - 0,0 196 1.015,7
08:04 12,1 7,7 10,1 74,0 4,7 1 - 0,0 195 1.015,7
08:03 12,1 7,5 9,9 73,1 4,7 355 - 0,0 201 1.015,8
08:02 12,1 7,5 9,9 73,0 4,7 355 - 0,0 200 1.015,8
08:01 12,1 7,5 9,9 73,0 4,5 355 - 0,0 201 1.015,8
08:00 12,1 7,4 9,9 73,0 4,1 15 - 0,0 200 1.015,8
 
07:59 12,1 7,4 9,9 73,0 4,5 32 - 0,0 199 1.015,8
07:58 12,1 7,4 9,9 73,0 5,0 15 - 0,0 172 1.015,8
07:57 12,1 7,5 9,9 73,2 5,2 4 - 0,0 134 1.015,8
07:56 12,1 7,7 10,0 74,0 5,0 18 - 0,0 135 1.015,8
07:55 12,1 7,7 10,0 74,0 5,2 3 - 0,0 164 1.015,8
07:54 12,1 7,7 10,0 74,0 5,2 9 - 0,0 145 1.015,8
07:53 12,1 7,7 10,0 74,0 4,8 2 - 0,0 146 1.015,8
07:52 12,1 7,7 10,0 74,0 4,4 341 - 0,0 135 1.015,8
07:51 12,1 7,6 10,0 74,0 4,3 16 - 0,0 146 1.015,8
07:50 12,1 7,6 10,0 74,0 4,4 355 - 0,0 152 1.015,8
07:49 12,0 7,5 9,9 73,5 4,2 6 - 0,0 169 1.015,8
07:48 12,0 7,4 9,8 73,0 4,1 30 - 0,0 161 1.015,8
07:47 12,0 7,4 9,8 73,0 4,1 22 - 0,0 133 1.015,8
07:46 12,0 7,3 9,8 73,0 4,7 340 - 0,0 122 1.015,8
07:45 11,9 7,3 9,8 73,0 4,9 345 - 0,0 113 1.015,8
07:44 11,9 7,3 9,8 73,0 4,4 22 - 0,0 124 1.015,9
07:43 11,9 7,3 9,8 73,0 3,6 61 - 0,0 126 1.015,8
07:42 11,9 7,3 9,8 73,0 2,9 336 - 0,0 119 1.015,8
07:41 11,9 7,3 9,8 73,0 3,1 47 - 0,0 131 1.015,8
07:40 11,9 7,3 9,7 73,0 3,4 345 - 0,0 144 1.015,8
07:39 11,9 7,3 9,7 73,0 3,9 61 - 0,0 156 1.015,8
07:38 11,9 7,2 9,7 73,0 3,7 31 - 0,0 148 1.015,8
07:37 11,8 7,2 9,7 73,0 4,2 328 - 0,0 146 1.015,8
07:36 11,8 7,2 9,7 73,0 4,4 350 - 0,0 135 1.015,7
07:35 11,9 7,2 9,7 73,0 4,3 30 - 0,0 139 1.015,7
07:34 11,9 7,2 9,7 73,0 4,3 17 - 0,0 137 1.015,8
07:33 11,8 7,2 9,7 73,0 3,8 17 - 0,0 130 1.015,8
07:32 11,8 7,2 9,7 73,0 3,4 53 - 0,0 131 1.015,8
07:31 11,8 7,1 9,6 72,5 3,0 4 - 0,0 130 1.015,8
07:30 11,8 7,0 9,5 72,0 3,5 62 - 0,0 127 1.015,8
07:29 11,8 7,0 9,6 72,0 4,7 28 - 0,0 126 1.015,9
07:28 11,8 7,0 9,5 72,0 5,3 37 - 0,0 125 1.015,8
07:27 11,8 7,0 9,5 72,0 4,7 32 - 0,0 122 1.015,9
07:26 11,8 7,0 9,5 72,0 3,6 55 - 0,0 112 1.015,9
07:25 11,8 7,0 9,5 72,0 3,7 350 - 0,0 93 1.015,8
07:24 11,8 7,0 9,5 72,0 3,9 7 - 0,0 105 1.015,9
07:23 11,8 7,0 9,6 72,0 3,6 43 - 0,0 93 1.015,8
07:22 11,8 7,0 9,5 71,9 3,5 355 - 0,0 87 1.015,9
07:21 11,8 6,8 9,4 71,0 3,9 51 - 0,0 83 1.015,9
07:20 11,8 6,9 9,5 71,5 4,5 57 - 0,0 74 1.015,8
07:19 11,8 7,0 9,6 72,0 4,5 15 - 0,0 59 1.015,9
07:18 11,8 7,0 9,6 72,0 4,4 47 - 0,0 65 1.015,9
07:17 11,8 7,0 9,6 72,0 4,1 20 - 0,0 69 1.015,8
07:16 11,8 7,0 9,6 72,0 4,2 30 - 0,0 67 1.015,8
07:15 11,8 7,0 9,6 72,0 4,2 27 - 0,0 65 1.015,8
07:14 11,9 7,0 9,6 72,0 4,3 51 - 0,0 58 1.015,8
07:13 11,8 7,0 9,6 72,0 4,5 34 - 0,0 64 1.015,8
07:12 11,9 7,0 9,6 72,0 4,7 42 - 0,0 76 1.015,8
07:11 11,9 7,0 9,6 72,0 4,6 22 - 0,0 75 1.015,8
07:10 11,9 7,0 9,6 72,0 3,7 9 - 0,0 76 1.015,9
07:09 11,9 7,1 9,6 72,0 3,7 97 - 0,0 73 1.015,8
07:08 11,9 7,1 9,6 72,0 3,4 15 - 0,0 76 1.015,8
07:07 11,9 7,2 9,7 72,7 4,8 328 - 0,0 85 1.015,8
07:06 11,9 7,3 9,8 73,0 4,9 20 - 0,0 77 1.015,8
07:05 11,9 7,3 9,8 73,0 4,9 28 - 0,0 71 1.015,8
07:04 12,0 7,3 9,8 73,0 4,2 67 - 0,0 64 1.015,7
07:03 11,9 7,3 9,8 73,0 3,1 15 - 0,0 59 1.015,7
07:02 11,9 7,3 9,8 73,0 4,2 317 - 0,0 58 1.015,6
07:01 11,9 7,3 9,8 73,0 4,8 338 - 0,0 60 1.015,7
07:00 11,9 7,3 9,7 73,0 4,9 6 - 0,0 63 1.015,7
 
06:59 11,9 7,3 9,7 73,0 4,9 16 - 0,0 64 1.015,7
06:58 11,9 7,3 9,7 73,0 4,9 14 - 0,0 63 1.015,7
06:57 11,9 7,3 9,7 73,0 4,8 29 - 0,0 63 1.015,7
06:56 11,9 7,3 9,7 73,0 4,5 49 - 0,0 62 1.015,7
06:55 11,9 7,3 9,7 73,0 4,1 6 - 0,0 62 1.015,7
06:54 11,9 7,3 9,7 73,0 4,1 345 - 0,0 62 1.015,7
06:53 11,9 7,3 9,7 73,0 4,0 52 - 0,0 61 1.015,7
06:52 11,9 7,3 9,8 73,0 4,4 55 - 0,0 60 1.015,7
06:51 11,9 7,3 9,7 73,0 4,2 61 - 0,0 60 1.015,7
06:50 11,9 7,3 9,7 73,0 4,2 29 - 0,0 60 1.015,7
06:49 11,9 7,3 9,7 73,0 4,4 5 - 0,0 58 1.015,6
06:48 11,9 7,3 9,7 73,0 4,6 51 - 0,0 56 1.015,6
06:47 11,9 7,3 9,7 73,0 4,5 41 - 0,0 55 1.015,6
06:46 11,9 7,3 9,7 73,0 4,4 345 - 0,0 53 1.015,6
06:45 11,9 7,2 9,7 73,0 4,0 7 - 0,0 53 1.015,6
06:44 11,8 7,2 9,7 73,0 3,9 329 - 0,0 51 1.015,6
06:43 11,8 7,2 9,7 73,0 4,0 350 - 0,0 47 1.015,6
06:42 11,8 7,2 9,7 73,0 4,3 13 - 0,0 46 1.015,5
06:41 11,8 7,2 9,6 73,0 4,4 9 - 0,0 43 1.015,6
06:40 11,8 7,2 9,6 73,0 4,7 22 - 0,0 42 1.015,6
06:39 11,8 7,1 9,6 73,0 4,6 16 - 0,0 40 1.015,6
06:38 11,8 7,1 9,6 73,0 4,5 48 - 0,0 38 1.015,6
06:37 11,8 7,1 9,6 73,0 4,0 26 - 0,0 33 1.015,6
06:36 11,8 7,2 9,6 73,1 3,8 31 - 0,0 33 1.015,6
06:35 11,8 7,3 9,7 74,0 3,7 41 - 0,0 31 1.015,6
06:34 11,8 7,4 9,7 74,0 3,5 34 - 0,0 29 1.015,6
06:33 11,8 7,4 9,8 74,0 3,1 49 - 0,0 26 1.015,7
06:32 11,8 7,4 9,8 74,0 3,4 15 - 0,0 25 1.015,7
06:31 11,8 7,4 9,8 74,0 4,1 12 - 0,0 25 1.015,7
06:30 11,8 7,4 9,7 74,0 3,4 9 - 0,0 23 1.015,7
06:29 11,8 7,3 9,7 74,0 3,2 99 - 0,0 22 1.015,6
06:28 11,8 7,3 9,7 74,0 3,1 6 - 0,0 21 1.015,6
06:27 11,8 7,3 9,7 74,0 3,7 1 - 0,0 21 1.015,6
06:26 11,7 7,3 9,6 74,0 3,5 54 - 0,0 21 1.015,6
06:25 11,7 7,3 9,6 74,0 3,5 345 - 0,0 19 1.015,6
06:24 11,7 7,2 9,6 74,0 3,7 60 - 0,0 19 1.015,6
06:23 11,7 7,2 9,6 74,0 3,8 18 - 0,0 18 1.015,7
06:22 11,7 7,2 9,6 74,0 4,2 0 - 0,0 18 1.015,7
06:21 11,7 7,2 9,6 74,0 4,2 20 - 0,0 18 1.015,6
06:20 11,6 7,2 9,6 74,0 3,9 9 - 0,0 18 1.015,6
06:19 11,6 7,4 9,7 74,8 3,5 13 - 0,0 17 1.015,6
06:18 11,6 7,4 9,7 75,0 3,3 34 - 0,0 16 1.015,6
06:17 11,7 7,4 9,7 75,0 3,3 36 - 0,0 16 1.015,6
06:16 11,6 7,4 9,7 75,0 3,3 39 - 0,0 15 1.015,6
06:15 11,6 7,4 9,7 75,0 3,4 40 - 0,0 14 1.015,5
06:14 11,6 7,4 9,7 75,0 3,5 54 - 0,0 14 1.015,6
06:13 11,6 7,6 9,8 75,8 3,8 36 - 0,0 13 1.015,6
06:12 11,6 7,6 9,8 76,0 3,9 30 - 0,0 12 1.015,6
06:11 11,6 7,6 9,8 76,0 3,6 45 - 0,0 12 1.015,6
06:10 11,6 7,6 9,8 76,0 3,5 52 - 0,0 12 1.015,6
06:09 11,7 7,6 9,8 76,0 3,6 43 - 0,0 11 1.015,6
06:08 11,7 7,6 9,8 76,0 3,9 15 - 0,0 11 1.015,6
06:07 11,7 7,6 9,8 76,2 4,2 9 - 0,0 11 1.015,6
06:06 11,7 7,8 9,9 77,0 4,2 36 - 0,0 10 1.015,6
06:05 11,7 7,8 9,9 77,0 4,0 41 - 0,0 9 1.015,6
06:04 11,7 7,8 9,9 77,0 3,6 22 - 0,0 9 1.015,6
06:03 11,7 7,8 10,0 77,0 3,7 10 - 0,0 9 1.015,6
06:02 11,7 7,9 10,0 77,0 4,1 35 - 0,0 7 1.015,6
06:01 11,7 7,9 10,0 77,0 4,1 355 - 0,0 7 1.015,6
06:00 11,7 7,9 10,0 77,0 3,7 7 - 0,0 7 1.015,6
 
05:59 11,8 7,9 10,0 77,0 3,5 32 - 0,0 7 1.015,7
05:58 11,8 7,9 10,0 77,0 3,7 16 - 0,0 5 1.015,7
05:57 11,8 7,9 10,0 77,0 3,7 15 - 0,0 5 1.015,7
05:56 11,8 7,9 10,0 77,0 3,7 36 - 0,0 5 1.015,7
05:55 11,8 7,9 10,0 77,0 4,1 350 - 0,0 5 1.015,7
05:54 11,8 7,9 10,0 77,0 4,3 350 - 0,0 5 1.015,7
05:53 11,8 7,9 10,0 77,0 3,9 22 - 0,0 5 1.015,8
05:52 11,8 7,9 10,0 77,0 4,0 42 - 0,0 5 1.015,7
05:51 11,8 7,9 10,1 77,0 4,0 0 - 0,0 0 1.015,7
05:50 11,8 8,0 10,1 77,0 4,0 48 - 0,0 0 1.015,8
05:49 11,8 8,0 10,1 77,0 3,9 26 - 0,0 0 1.015,7
05:48 11,8 8,0 10,1 77,0 3,7 8 - 0,0 0 1.015,7
05:47 11,9 8,0 10,1 77,0 4,0 326 - 0,0 0 1.015,7
05:46 11,9 8,0 10,1 77,0 4,3 355 - 0,0 0 1.015,8
05:45 11,9 8,1 10,2 77,0 4,4 19 - 0,0 0 1.015,8
05:44 11,9 8,1 10,2 77,0 4,0 32 - 0,0 0 1.015,7
05:43 12,0 8,1 10,2 77,0 3,4 47 - 0,0 0 1.015,8
05:42 11,9 8,1 10,2 77,0 3,4 1 - 0,0 0 1.015,8
05:41 12,0 8,1 10,2 77,0 2,9 67 - 0,0 0 1.015,8
05:40 11,9 8,1 10,2 77,0 2,9 330 - 0,0 0 1.015,9
05:39 12,0 7,9 10,1 76,2 3,0 1 - 0,0 0 1.015,9
05:38 12,0 7,9 10,1 76,0 3,6 63 - 0,0 0 1.015,9
05:37 12,0 7,9 10,1 76,0 4,3 4 - 0,0 0 1.015,8
05:36 11,9 7,9 10,1 76,0 4,9 22 - 0,0 0 1.015,9
05:35 12,0 7,9 10,1 76,0 4,9 34 - 0,0 0 1.015,8
05:34 12,0 7,9 10,1 76,0 4,4 41 - 0,0 0 1.015,9
05:33 11,9 7,9 10,1 76,0 3,7 20 - 0,0 0 1.015,9
05:32 11,9 7,9 10,1 76,0 3,2 355 - 0,0 0 1.016,0
05:31 11,9 7,9 10,1 76,0 3,0 35 - 0,0 0 1.016,0
05:30 11,9 7,9 10,1 76,0 3,3 38 - 0,0 0 1.016,0
05:29 11,9 7,9 10,1 76,0 3,1 35 - 0,0 0 1.016,1
05:28 11,9 7,9 10,1 76,0 3,3 56 - 0,0 0 1.016,0
05:27 11,9 7,8 10,0 75,3 3,5 43 - 0,0 0 1.016,0
05:26 11,9 7,7 10,0 75,0 4,0 355 - 0,0 0 1.016,0
05:25 11,9 7,7 10,0 75,0 3,4 31 - 0,0 0 1.016,0
05:24 11,9 7,7 10,0 75,0 3,7 91 - 0,0 0 1.016,0
05:23 11,9 7,7 10,0 75,0 3,6 30 - 0,0 0 1.016,0
05:22 11,9 7,7 10,0 75,0 3,4 33 - 0,0 0 1.016,0
05:21 11,9 7,7 10,0 75,0 3,0 331 - 0,0 0 1.016,0
05:20 11,9 7,7 10,0 75,0 3,2 32 - 0,0 0 1.016,0
05:19 11,9 7,7 10,0 75,0 3,6 8 - 0,0 0 1.016,0
05:18 11,9 7,7 10,0 75,0 3,7 27 - 0,0 0 1.016,0
05:17 11,9 7,7 10,0 75,0 3,9 45 - 0,0 0 1.016,0
05:16 11,9 7,7 10,0 75,0 3,7 39 - 0,0 0 1.016,0
05:15 12,0 7,7 10,0 75,0 3,6 5 - 0,0 0 1.016,0
05:14 12,0 7,7 10,0 75,0 3,4 17 - 0,0 0 1.016,0
05:13 12,0 7,8 10,1 75,2 3,2 47 - 0,0 0 1.016,0
05:12 12,0 7,9 10,1 76,0 3,0 11 - 0,0 0 1.016,0
05:11 12,0 7,9 10,1 76,0 3,3 46 - 0,0 0 1.016,1
05:10 12,0 7,9 10,1 76,0 3,3 34 - 0,0 0 1.016,1
05:09 12,0 7,9 10,1 76,0 3,2 1 - 0,0 0 1.016,1
05:08 11,9 7,7 10,0 75,1 2,9 32 - 0,0 0 1.016,0
05:07 11,9 7,7 10,0 75,0 2,6 345 - 0,0 0 1.016,0
05:06 11,9 7,7 10,0 75,0 2,9 345 - 0,0 0 1.016,0
05:05 11,9 7,7 9,9 75,0 3,6 18 - 0,0 0 1.016,0
05:04 11,9 7,7 10,0 75,0 3,9 359 - 0,0 0 1.016,0
05:03 11,9 7,6 9,9 75,0 3,4 34 - 0,0 0 1.016,0
05:02 11,9 7,6 9,9 75,0 3,2 45 - 0,0 0 1.016,1
05:01 11,9 7,6 9,9 75,0 3,1 34 - 0,0 0 1.016,1
05:00 11,9 7,6 9,9 75,0 2,9 39 - 0,0 0 1.016,0
 
04:59 11,8 7,6 9,9 75,0 2,9 340 - 0,0 0 1.016,0
04:58 11,8 7,6 9,9 75,0 3,3 359 - 0,0 0 1.016,0
04:57 11,8 7,6 9,9 75,0 4,0 35 - 0,0 0 1.016,0
04:56 11,8 7,6 9,9 75,0 4,1 29 - 0,0 0 1.016,0
04:55 11,8 7,6 9,9 75,0 3,5 26 - 0,0 0 1.015,9
04:54 11,8 7,7 9,9 75,4 3,2 31 - 0,0 0 1.015,9
04:53 11,8 7,8 10,0 76,0 3,7 345 - 0,0 0 1.015,9
04:52 11,8 7,8 10,0 76,0 3,9 16 - 0,0 0 1.016,0
04:51 11,8 7,8 10,0 76,0 4,1 34 - 0,0 0 1.016,0
04:50 11,9 7,8 10,0 76,1 4,0 44 - 0,0 0 1.016,0
04:49 11,9 8,0 10,1 77,0 3,9 11 - 0,0 0 1.016,0
04:48 11,9 8,0 10,1 77,0 4,0 345 - 0,0 0 1.016,0
04:47 11,9 8,0 10,1 77,0 3,8 355 - 0,0 0 1.015,9
04:46 11,9 8,0 10,1 77,0 3,7 5 - 0,0 0 1.015,9
04:45 11,9 8,0 10,1 77,0 3,6 10 - 0,0 0 1.015,9
04:44 11,9 8,1 10,2 77,2 3,8 5 - 0,0 0 1.015,9
04:43 11,9 8,2 10,2 78,0 3,9 33 - 0,0 0 1.015,9
04:42 11,9 8,2 10,2 78,0 4,0 355 - 0,0 0 1.015,9
04:41 11,9 8,2 10,3 78,0 3,8 18 - 0,0 0 1.015,8
04:40 11,9 8,2 10,3 78,0 3,8 4 - 0,0 0 1.015,9
04:39 11,9 8,2 10,3 78,0 3,9 25 - 0,0 0 1.016,0
04:38 11,9 8,3 10,3 78,0 3,9 359 - 0,0 0 1.016,0
04:37 11,9 8,3 10,3 78,0 3,8 20 - 0,0 0 1.015,9
04:36 11,9 8,3 10,3 78,0 3,6 12 - 0,0 0 1.015,9
04:35 11,9 8,4 10,4 78,6 3,3 16 - 0,0 0 1.015,9
04:34 11,9 8,4 10,4 79,0 3,2 45 - 0,0 0 1.015,9
04:33 11,9 8,4 10,4 79,0 3,4 23 - 0,0 0 1.015,9
04:32 11,9 8,4 10,4 79,0 3,5 17 - 0,0 0 1.016,0
04:31 12,0 8,5 10,4 79,0 3,5 14 - 0,0 0 1.016,0
04:30 12,0 8,5 10,4 79,0 3,5 18 - 0,0 0 1.016,0
04:29 12,0 8,5 10,4 79,0 3,8 10 - 0,0 0 1.016,0
04:28 12,0 8,5 10,5 79,0 4,1 345 - 0,0 0 1.016,0
04:27 12,0 8,5 10,5 79,0 3,8 26 - 0,0 0 1.016,1
04:26 12,0 8,5 10,5 79,0 4,2 63 - 0,0 0 1.016,0
04:25 12,0 8,5 10,5 79,0 4,2 41 - 0,0 0 1.016,0
04:24 12,1 8,6 10,5 79,0 3,9 34 - 0,0 0 1.016,0
04:23 12,0 8,5 10,5 79,0 3,9 4 - 0,0 0 1.016,0
04:22 12,1 8,6 10,5 79,0 4,0 14 - 0,0 0 1.016,0
04:21 12,0 8,5 10,5 79,0 3,8 5 - 0,0 0 1.016,0
04:20 12,1 8,6 10,5 79,0 3,5 51 - 0,0 0 1.016,0
04:19 12,1 8,6 10,5 79,0 3,1 38 - 0,0 0 1.016,0
04:18 12,1 8,6 10,5 79,0 3,1 345 - 0,0 0 1.016,0
04:17 12,1 8,6 10,6 79,0 3,7 333 - 0,0 0 1.016,1
04:16 12,1 8,6 10,5 79,0 4,1 1 - 0,0 0 1.016,0
04:15 12,1 8,6 10,5 79,0 4,3 355 - 0,0 0 1.015,9
04:14 12,1 8,6 10,6 79,0 4,6 7 - 0,0 0 1.015,9
04:13 12,1 8,6 10,6 79,0 4,5 5 - 0,0 0 1.016,0
04:12 12,1 8,6 10,6 79,0 4,4 323 - 0,0 0 1.016,0
04:11 12,1 8,6 10,6 79,0 4,1 355 - 0,0 0 1.016,0
04:10 12,1 8,6 10,6 79,0 4,0 327 - 0,0 0 1.016,0
04:09 12,1 8,6 10,6 79,0 4,0 322 - 0,0 0 1.016,1
04:08 12,1 8,6 10,6 79,0 3,3 355 - 0,0 0 1.016,1
04:07 12,2 8,7 10,6 79,0 3,4 61 - 0,0 0 1.016,1
04:06 12,2 8,6 10,6 79,0 2,7 9 - 0,0 0 1.016,1
04:05 12,2 8,7 10,6 79,0 3,4 299 - 0,0 0 1.016,1
04:04 12,2 8,7 10,6 79,0 3,7 16 - 0,0 0 1.016,1
04:03 12,2 8,7 10,6 79,0 4,1 329 - 0,0 0 1.016,1
04:02 12,2 8,7 10,6 79,0 4,1 3 - 0,0 0 1.016,1
04:01 12,2 8,7 10,6 79,0 4,1 330 - 0,0 0 1.016,1
04:00 12,2 8,7 10,6 79,0 4,3 10 - 0,0 0 1.016,1
 
03:59 12,2 8,6 10,6 79,0 4,4 1 - 0,0 0 1.016,2
03:58 12,2 8,7 10,6 79,0 4,3 355 - 0,0 0 1.016,1
03:57 12,2 8,7 10,6 79,0 4,0 5 - 0,0 0 1.016,1
03:56 12,2 8,7 10,6 79,0 3,9 322 - 0,0 0 1.016,2
03:55 12,2 8,7 10,6 79,0 4,2 4 - 0,0 0 1.016,2
03:54 12,1 8,6 10,6 79,0 5,0 11 - 0,0 0 1.016,2
03:53 12,2 8,6 10,6 79,0 5,1 355 - 0,0 0 1.016,2
03:52 12,1 8,6 10,6 79,0 4,9 341 - 0,0 0 1.016,2
03:51 12,2 8,6 10,6 79,0 4,8 10 - 0,0 0 1.016,1
03:50 12,1 8,6 10,6 79,0 4,8 345 - 0,0 0 1.016,1
03:49 12,1 8,5 10,5 78,6 4,7 25 - 0,0 0 1.016,2
03:48 12,2 8,5 10,5 78,0 4,1 345 - 0,0 0 1.016,2
03:47 12,1 8,4 10,5 78,0 3,5 26 - 0,0 0 1.016,1
03:46 12,2 8,5 10,5 78,0 3,5 43 - 0,0 0 1.016,1
03:45 12,2 8,5 10,5 78,0 3,8 1 - 0,0 0 1.016,1
03:44 12,2 8,5 10,5 78,0 4,3 355 - 0,0 0 1.016,2
03:43 12,2 8,5 10,5 78,0 3,8 14 - 0,0 0 1.016,2
03:42 12,2 8,5 10,5 78,0 3,6 55 - 0,0 0 1.016,2
03:41 12,2 8,5 10,5 78,0 3,4 27 - 0,0 0 1.016,2
03:40 12,2 8,5 10,5 78,0 3,6 355 - 0,0 0 1.016,2
03:39 12,2 8,5 10,5 78,0 3,5 52 - 0,0 0 1.016,2
03:38 12,2 8,5 10,5 78,0 3,6 345 - 0,0 0 1.016,2
03:37 12,2 8,5 10,5 78,0 4,1 345 - 0,0 0 1.016,2
03:36 12,2 8,5 10,5 78,0 4,2 12 - 0,0 0 1.016,2
03:35 12,2 8,5 10,5 78,0 4,3 355 - 0,0 0 1.016,1
03:34 12,1 8,4 10,5 78,0 4,2 355 - 0,0 0 1.016,1
03:33 12,1 8,4 10,5 78,0 4,1 341 - 0,0 0 1.016,2
03:32 12,1 8,4 10,5 78,0 4,1 355 - 0,0 0 1.016,2
03:31 12,1 8,4 10,5 78,0 4,2 340 - 0,0 0 1.016,2
03:30 12,1 8,4 10,5 78,0 4,1 359 - 0,0 0 1.016,2
03:29 12,1 8,4 10,5 78,0 3,8 27 - 0,0 0 1.016,2
03:28 12,1 8,4 10,5 78,0 3,2 334 - 0,0 0 1.016,2
03:27 12,1 8,4 10,5 78,0 2,3 40 - 0,0 0 1.016,2
03:26 12,1 8,4 10,5 78,0 2,2 299 - 0,0 0 1.016,2
03:25 12,1 8,4 10,5 78,0 3,0 33 - 0,0 0 1.016,2
03:24 12,1 8,4 10,5 78,0 3,7 12 - 0,0 0 1.016,2
03:23 12,1 8,4 10,5 78,0 3,5 359 - 0,0 0 1.016,2
03:22 12,1 8,4 10,5 78,0 3,3 45 - 0,0 0 1.016,2
03:21 12,1 8,4 10,5 78,0 3,3 345 - 0,0 0 1.016,2
03:20 12,1 8,4 10,5 78,0 3,8 330 - 0,0 0 1.016,2
03:19 12,1 8,4 10,5 78,0 4,3 16 - 0,0 0 1.016,2
03:18 12,1 8,4 10,5 78,0 4,5 355 - 0,0 0 1.016,2
03:17 12,1 8,4 10,5 78,0 4,1 350 - 0,0 0 1.016,2
03:16 12,1 8,4 10,5 78,0 3,7 355 - 0,0 0 1.016,2
03:15 12,1 8,4 10,5 78,0 3,7 7 - 0,0 0 1.016,2
03:14 12,1 8,4 10,5 78,0 4,0 1 - 0,0 0 1.016,2
03:13 12,1 8,4 10,5 78,0 4,0 350 - 0,0 0 1.016,2
03:12 12,1 8,5 10,5 78,0 3,7 355 - 0,0 0 1.016,2
03:11 12,2 8,5 10,5 78,0 3,6 14 - 0,0 0 1.016,2
03:10 12,2 8,5 10,5 78,0 3,9 54 - 0,0 0 1.016,2
03:09 12,2 8,5 10,5 78,0 4,0 2 - 0,0 0 1.016,2
03:08 12,2 8,6 10,6 78,5 4,4 2 - 0,0 0 1.016,2
03:07 12,2 8,7 10,7 79,0 4,3 355 - 0,0 0 1.016,2
03:06 12,3 8,8 10,7 79,0 4,2 1 - 0,0 0 1.016,2
03:05 12,3 8,8 10,8 79,0 3,9 5 - 0,0 0 1.016,3
03:04 12,3 8,8 10,8 79,0 3,6 350 - 0,0 0 1.016,3
03:03 12,3 8,8 10,8 79,0 3,3 5 - 0,0 0 1.016,3
03:02 12,3 8,8 10,8 79,0 3,3 336 - 0,0 0 1.016,2
03:01 12,3 8,8 10,8 79,0 3,5 303 - 0,0 0 1.016,3
03:00 12,4 8,8 10,8 79,0 3,5 355 - 0,0 0 1.016,3
 
02:59 12,4 9,0 10,9 79,9 3,9 350 - 0,0 0 1.016,3
02:58 12,4 9,1 11,0 80,0 3,9 350 - 0,0 0 1.016,3
02:57 12,4 9,1 11,0 80,0 3,6 345 - 0,0 0 1.016,2
02:56 12,4 9,1 11,0 80,0 3,6 0 - 0,0 0 1.016,2
02:55 12,4 9,1 11,0 80,0 3,8 345 - 0,0 0 1.016,2
02:54 12,4 9,1 11,0 80,0 3,7 335 - 0,0 0 1.016,2
02:53 12,4 9,1 11,0 80,0 3,7 345 - 0,0 0 1.016,2
02:52 12,4 9,1 11,0 80,0 3,9 322 - 0,0 0 1.016,2
02:51 12,4 9,1 11,0 80,0 4,1 345 - 0,0 0 1.016,2
02:50 12,4 9,1 11,0 80,0 4,0 345 - 0,0 0 1.016,2
02:49 12,5 9,1 11,0 80,0 4,1 3 - 0,0 0 1.016,2
02:48 12,5 9,1 11,0 80,0 4,0 350 - 0,0 0 1.016,2
02:47 12,4 9,1 11,0 80,0 3,9 328 - 0,0 0 1.016,2
02:46 12,5 9,2 11,1 80,0 3,8 312 - 0,0 0 1.016,2
02:45 12,5 9,1 11,0 80,0 3,9 332 - 0,0 0 1.016,2
02:44 12,5 9,2 11,1 80,0 3,9 336 - 0,0 0 1.016,2
02:43 12,5 9,2 11,1 80,0 3,8 350 - 0,0 0 1.016,2
02:42 12,5 9,2 11,1 80,0 3,4 1 - 0,0 0 1.016,2
02:41 12,5 9,2 11,1 80,0 3,5 43 - 0,0 0 1.016,2
02:40 12,5 9,2 11,1 80,0 3,5 7 - 0,0 0 1.016,3
02:39 12,5 9,2 11,1 80,0 3,9 350 - 0,0 0 1.016,2
02:38 12,5 9,1 11,0 80,0 4,0 338 - 0,0 0 1.016,3
02:37 12,4 9,1 11,0 80,0 3,3 345 - 0,0 0 1.016,3
02:36 12,4 9,1 11,0 80,0 3,2 58 - 0,0 0 1.016,3
02:35 12,4 8,9 10,9 79,1 2,9 2 - 0,0 0 1.016,3
02:34 12,4 8,9 10,8 79,0 2,5 5 - 0,0 0 1.016,3
02:33 12,4 8,9 10,8 79,0 2,2 33 - 0,0 0 1.016,3
02:32 12,4 8,9 10,8 79,0 2,2 11 - 0,0 0 1.016,3
02:31 12,4 8,9 10,8 79,0 2,4 355 - 0,0 0 1.016,3
02:30 12,3 8,8 10,8 79,0 2,3 17 - 0,0 0 1.016,3
02:29 12,3 8,8 10,8 79,0 2,2 355 - 0,0 0 1.016,2
02:28 12,3 8,8 10,8 79,0 2,0 3 - 0,0 0 1.016,2
02:27 12,3 8,8 10,8 79,0 1,9 10 - 0,0 0 1.016,3
02:26 12,3 8,7 10,7 78,4 1,7 21 - 0,0 0 1.016,3
02:25 12,3 8,6 10,6 78,0 1,7 36 - 0,0 0 1.016,3
02:24 12,3 8,6 10,6 78,0 1,8 46 - 0,0 0 1.016,3
02:23 12,3 8,6 10,6 78,0 1,8 22 - 0,0 0 1.016,3
02:22 12,3 8,6 10,6 78,0 1,8 27 - 0,0 0 1.016,4
02:21 12,3 8,6 10,6 78,0 1,8 28 - 0,0 0 1.016,4
02:20 12,3 8,6 10,6 78,0 1,7 45 - 0,0 0 1.016,3
02:19 12,3 8,6 10,6 78,0 1,7 40 - 0,0 0 1.016,3
02:18 12,3 8,6 10,6 78,0 1,7 40 - 0,0 0 1.016,4
02:17 12,3 8,6 10,6 78,0 1,9 37 - 0,0 0 1.016,4
02:16 12,3 8,6 10,6 78,0 2,3 33 - 0,0 0 1.016,4
02:15 12,3 8,6 10,6 78,0 2,4 40 - 0,0 0 1.016,4
02:14 12,3 8,6 10,6 78,0 2,2 41 - 0,0 0 1.016,4
02:13 12,3 8,6 10,7 78,0 2,1 57 - 0,0 0 1.016,4
02:12 12,3 8,6 10,7 77,9 2,3 39 - 0,0 0 1.016,3
02:11 12,3 8,4 10,6 77,0 2,4 30 - 0,0 0 1.016,4
02:10 12,3 8,4 10,6 77,0 2,2 35 - 0,0 0 1.016,4
02:09 12,3 8,5 10,6 77,0 2,2 47 - 0,0 0 1.016,4
02:08 12,3 8,5 10,6 77,0 2,2 40 - 0,0 0 1.016,4
02:07 12,4 8,5 10,6 77,0 2,2 36 - 0,0 0 1.016,4
02:06 12,4 8,5 10,6 77,0 2,1 41 - 0,0 0 1.016,4
02:05 12,4 8,5 10,6 77,0 2,1 30 - 0,0 0 1.016,4
02:04 12,4 8,5 10,7 77,0 1,9 41 - 0,0 0 1.016,4
02:03 12,4 8,6 10,7 77,0 1,8 36 - 0,0 0 1.016,4
02:02 12,4 8,6 10,7 77,0 1,7 24 - 0,0 0 1.016,4
02:01 12,5 8,6 10,7 77,0 1,7 43 - 0,0 0 1.016,4
02:00 12,5 8,6 10,7 77,0 1,7 39 - 0,0 0 1.016,4
 
01:59 12,5 8,6 10,8 77,0 1,8 33 - 0,0 0 1.016,5
01:58 12,6 8,7 10,8 77,0 2,0 36 - 0,0 0 1.016,4
01:57 12,6 8,7 10,8 77,0 2,1 39 - 0,0 0 1.016,4
01:56 12,6 8,7 10,8 77,0 2,2 41 - 0,0 0 1.016,5
01:55 12,6 8,7 10,8 77,0 2,2 30 - 0,0 0 1.016,5
01:54 12,6 8,8 10,9 77,0 2,1 25 - 0,0 0 1.016,5
01:53 12,7 8,8 10,9 77,0 1,9 34 - 0,0 0 1.016,5
01:52 12,7 8,8 10,9 77,0 1,9 23 - 0,0 0 1.016,5
01:51 12,7 8,8 10,9 77,0 1,8 35 - 0,0 0 1.016,5
01:50 12,7 8,8 10,9 77,0 1,7 46 - 0,0 0 1.016,5
01:49 12,7 8,6 10,8 76,1 1,8 21 - 0,0 0 1.016,5
01:48 12,7 8,6 10,8 76,0 2,0 39 - 0,0 0 1.016,5
01:47 12,7 8,6 10,8 76,0 2,0 36 - 0,0 0 1.016,6
01:46 12,7 8,7 10,9 76,0 1,9 32 - 0,0 0 1.016,6
01:45 12,8 8,7 10,9 76,0 1,8 53 - 0,0 0 1.016,5
01:44 12,8 8,7 10,9 76,0 1,8 58 - 0,0 0 1.016,6
01:43 12,8 8,7 10,9 76,0 1,7 51 - 0,0 0 1.016,6
01:42 12,8 8,7 10,9 76,0 1,7 26 - 0,0 0 1.016,6
01:41 12,8 8,8 11,0 76,0 1,7 46 - 0,0 0 1.016,6
01:40 12,8 8,8 11,0 76,0 1,6 43 - 0,0 0 1.016,6
01:39 12,8 8,8 11,0 76,0 1,5 53 - 0,0 0 1.016,6
01:38 12,9 8,8 11,0 76,0 1,6 34 - 0,0 0 1.016,6
01:37 12,9 8,8 11,0 75,8 1,8 22 - 0,0 0 1.016,6
01:36 12,9 8,6 10,9 75,0 1,9 53 - 0,0 0 1.016,6
01:35 12,9 8,7 10,9 75,0 1,9 45 - 0,0 0 1.016,6
01:34 13,0 8,7 11,0 75,0 1,8 66 - 0,0 0 1.016,6
01:33 13,0 8,7 11,0 75,0 1,7 59 - 0,0 0 1.016,6
01:32 13,0 8,7 11,0 75,0 1,7 58 - 0,0 0 1.016,6
01:31 13,0 8,7 11,0 75,0 1,6 50 - 0,0 0 1.016,5
01:30 13,0 8,7 11,0 75,0 1,7 49 - 0,0 0 1.016,5
01:29 13,0 8,7 11,0 75,0 1,6 55 - 0,0 0 1.016,5
01:28 13,1 8,8 11,1 75,0 1,6 51 - 0,0 0 1.016,5
01:27 13,1 8,8 11,1 75,0 1,6 59 - 0,0 0 1.016,5
01:26 13,0 8,8 11,0 75,0 1,7 43 - 0,0 0 1.016,6
01:25 13,0 8,7 11,0 74,7 1,6 51 - 0,0 0 1.016,6
01:24 13,1 8,6 10,9 74,0 1,6 31 - 0,0 0 1.016,6
01:23 13,1 8,6 10,9 74,0 1,6 53 - 0,0 0 1.016,6
01:22 13,1 8,6 10,9 74,0 1,8 47 - 0,0 0 1.016,6
01:21 13,1 8,6 10,9 74,0 1,8 47 - 0,0 0 1.016,6
01:20 13,1 8,6 10,9 74,0 1,8 44 - 0,0 0 1.016,6
01:19 13,1 8,6 10,9 74,0 1,7 57 - 0,0 0 1.016,5
01:18 13,1 8,6 10,9 74,0 1,7 61 - 0,0 0 1.016,6
01:17 13,1 8,6 10,9 74,0 1,7 36 - 0,0 0 1.016,6
01:16 13,1 8,6 10,9 74,0 1,8 57 - 0,0 0 1.016,5
01:15 13,1 8,6 10,9 74,0 1,9 40 - 0,0 0 1.016,5
01:14 13,1 8,6 10,9 74,0 2,0 42 - 0,0 0 1.016,6
01:13 13,0 8,6 10,9 74,0 2,0 32 - 0,0 0 1.016,6
01:12 13,0 8,5 10,9 73,7 1,7 34 - 0,0 0 1.016,6
01:11 13,0 8,4 10,8 73,0 1,6 48 - 0,0 0 1.016,6
01:10 13,1 8,4 10,8 73,0 1,7 72 - 0,0 0 1.016,6
01:09 13,0 8,4 10,8 73,0 1,9 60 - 0,0 0 1.016,6
01:08 13,1 8,4 10,8 73,0 1,9 60 - 0,0 0 1.016,6
01:07 13,1 8,4 10,8 73,0 1,9 59 - 0,0 0 1.016,6
01:06 13,1 8,4 10,8 73,0 1,8 43 - 0,0 0 1.016,6
01:05 13,1 8,4 10,9 73,0 1,9 34 - 0,0 0 1.016,6
01:04 13,1 8,4 10,9 73,0 1,8 55 - 0,0 0 1.016,6
01:03 13,1 8,4 10,9 73,0 1,8 42 - 0,0 0 1.016,6
01:02 13,1 8,4 10,9 73,0 2,0 57 - 0,0 0 1.016,6
01:01 13,1 8,4 10,9 73,0 2,2 51 - 0,0 0 1.016,6
01:00 13,1 8,4 10,9 73,0 2,3 52 - 0,0 0 1.016,6
 
00:59 13,1 8,4 10,9 73,0 2,1 40 - 0,0 0 1.016,7
00:58 13,1 8,5 10,9 73,0 1,9 76 - 0,0 0 1.016,7
00:57 13,1 8,5 10,9 73,0 1,8 49 - 0,0 0 1.016,7
00:56 13,2 8,5 10,9 73,0 1,8 53 - 0,0 0 1.016,7
00:55 13,2 8,5 10,9 73,0 1,9 47 - 0,0 0 1.016,8
00:54 13,2 8,5 10,9 73,0 2,0 47 - 0,0 0 1.016,8
00:53 13,2 8,5 10,9 73,0 2,1 49 - 0,0 0 1.016,8
00:52 13,2 8,4 10,9 72,4 2,1 40 - 0,0 0 1.016,8
00:51 13,2 8,3 10,8 72,0 2,2 39 - 0,0 0 1.016,8
00:50 13,2 8,3 10,9 72,1 2,2 53 - 0,0 0 1.016,8
00:49 13,2 8,5 11,0 72,8 2,1 47 - 0,0 0 1.016,8
00:48 13,2 8,3 10,9 72,0 2,1 35 - 0,0 0 1.016,8
00:47 13,2 8,5 10,9 72,7 2,1 28 - 0,0 0 1.016,8
00:46 13,2 8,4 10,9 72,3 2,0 24 - 0,0 0 1.016,8
00:45 13,2 8,3 10,9 72,0 2,0 46 - 0,0 0 1.016,8
00:44 13,2 8,3 10,9 72,0 2,1 20 - 0,0 0 1.016,8
00:43 13,2 8,3 10,9 72,0 2,0 63 - 0,0 0 1.016,8
00:42 13,2 8,3 10,9 72,0 2,1 28 - 0,0 0 1.016,8
00:41 13,2 8,4 10,9 72,0 2,3 45 - 0,0 0 1.016,8
00:40 13,2 8,3 10,9 72,0 2,4 19 - 0,0 0 1.016,8
00:39 13,2 8,4 10,9 72,0 2,4 18 - 0,0 0 1.016,8
00:38 13,3 8,4 10,9 72,0 2,3 44 - 0,0 0 1.016,8
00:37 13,3 8,4 10,9 72,0 2,3 36 - 0,0 0 1.016,8
00:36 13,3 8,4 10,9 72,0 2,2 50 - 0,0 0 1.016,7
00:35 13,3 8,4 11,0 72,0 2,2 36 - 0,0 0 1.016,8
00:34 13,3 8,4 11,0 72,0 2,4 31 - 0,0 0 1.016,8
00:33 13,3 8,4 11,0 72,0 2,5 44 - 0,0 0 1.016,8
00:32 13,3 8,4 11,0 72,0 2,5 47 - 0,0 0 1.016,8
00:31 13,3 8,5 11,0 72,0 2,5 32 - 0,0 0 1.016,9
00:30 13,3 8,5 11,0 72,0 2,5 39 - 0,0 0 1.016,9
00:29 13,4 8,5 11,0 72,0 2,5 73 - 0,0 0 1.016,8
00:28 13,4 8,5 11,0 72,0 2,4 36 - 0,0 0 1.016,9
00:27 13,4 8,5 11,0 72,0 2,4 42 - 0,0 0 1.016,9
00:26 13,4 8,5 11,0 72,0 2,4 45 - 0,0 0 1.016,9
00:25 13,4 8,5 11,0 72,0 2,6 34 - 0,0 0 1.017,0
00:24 13,4 8,5 11,0 72,0 2,6 40 - 0,0 0 1.016,9
00:23 13,4 8,5 11,0 72,0 2,8 31 - 0,0 0 1.016,9
00:22 13,4 8,5 11,1 72,0 2,8 32 - 0,0 0 1.016,9
00:21 13,4 8,5 11,1 72,0 2,8 43 - 0,0 0 1.016,9
00:20 13,4 8,6 11,1 72,0 2,9 61 - 0,0 0 1.016,9
00:19 13,4 8,6 11,1 72,0 3,0 42 - 0,0 0 1.017,0
00:18 13,4 8,6 11,1 72,0 2,9 43 - 0,0 0 1.017,0
00:17 13,4 8,6 11,1 72,0 2,7 53 - 0,0 0 1.017,0
00:16 13,4 8,6 11,1 72,0 2,8 36 - 0,0 0 1.017,0
00:15 13,4 8,6 11,1 72,0 2,8 36 - 0,0 0 1.017,0
00:14 13,5 8,6 11,1 72,0 2,7 43 - 0,0 0 1.016,9
00:13 13,5 8,6 11,1 72,0 2,6 34 - 0,0 0 1.016,9
00:12 13,5 8,6 11,1 72,0 2,6 30 - 0,0 0 1.016,9
00:11 13,4 8,6 11,1 72,0 2,7 41 - 0,0 0 1.016,9
00:10 13,4 8,6 11,1 72,0 2,9 46 - 0,0 0 1.016,9
00:09 13,4 8,6 11,1 72,0 3,0 32 - 0,0 0 1.016,9
00:08 13,4 8,6 11,1 72,0 2,9 51 - 0,0 0 1.016,9
00:07 13,4 8,6 11,1 72,0 2,7 32 - 0,0 0 1.016,9
00:06 13,4 8,6 11,1 72,0 2,9 4 - 0,0 0 1.016,9
00:05 13,5 8,6 11,1 72,0 3,0 26 - 0,0 0 1.016,9
00:04 13,5 8,6 11,1 72,0 3,3 40 - 0,0 0 1.016,9
00:03 13,5 8,6 11,1 72,0 3,3 35 - 0,0 0 1.016,9
00:02 13,5 8,6 11,1 72,0 3,1 36 - 0,0 0 1.016,9
00:01 13,5 8,6 11,1 72,0 3,1 32 - 0,0 0 1.016,9
00:00 13,5 8,6 11,1 72,0 3,2 46 - 0,0 0 1.016,9
 
23:59 13,5 8,6 11,1 72,0 3,3 23 - 0,0 0 1.016,9
23:58 13,5 8,6 11,1 72,0 3,3 55 - 0,0 0 1.016,9
23:57 13,5 8,6 11,1 72,0 3,3 36 - 0,0 0 1.016,9
23:56 13,5 8,6 11,1 72,0 3,5 30 - 0,0 0 1.016,9
23:55 13,5 8,6 11,2 72,0 3,5 47 - 0,0 0 1.016,9
23:54 13,5 8,7 11,2 72,0 3,6 48 - 0,0 0 1.016,9
23:53 13,6 8,7 11,2 72,0 3,5 32 - 0,0 0 1.017,0
23:52 13,6 8,7 11,2 72,0 3,4 39 - 0,0 0 1.017,0
23:51 13,6 8,7 11,2 72,2 3,0 39 - 0,0 0 1.017,0
23:50 13,6 8,9 11,3 73,0 2,8 50 - 0,0 0 1.017,0
23:49 13,6 8,9 11,3 73,0 2,6 26 - 0,0 0 1.017,0
23:48 13,6 8,9 11,3 73,0 2,8 345 - 0,0 0 1.017,0
23:47 13,6 8,9 11,4 73,0 2,9 38 - 0,0 0 1.017,0
23:46 13,6 8,9 11,4 73,0 3,0 38 - 0,0 0 1.017,0
23:45 13,6 8,9 11,4 73,0 2,7 20 - 0,0 0 1.017,0
23:44 13,6 8,9 11,4 73,0 2,5 46 - 0,0 0 1.017,0
23:43 13,6 8,9 11,4 73,0 2,4 18 - 0,0 0 1.017,0
23:42 13,6 8,9 11,4 73,0 2,4 47 - 0,0 0 1.017,0
23:41 13,6 8,9 11,4 73,0 2,4 30 - 0,0 0 1.017,0
23:40 13,6 9,0 11,4 73,0 2,7 22 - 0,0 0 1.017,0
23:39 13,7 9,0 11,4 73,0 2,9 30 - 0,0 0 1.017,0
23:38 13,7 9,0 11,4 73,0 3,1 35 - 0,0 0 1.017,0
23:37 13,7 9,0 11,4 73,0 3,2 27 - 0,0 0 1.017,1
23:36 13,7 9,0 11,4 73,0 2,9 25 - 0,0 0 1.017,0
23:35 13,7 9,0 11,4 73,0 2,9 47 - 0,0 0 1.017,0
23:34 13,7 9,0 11,5 73,0 3,2 45 - 0,0 0 1.017,0
23:33 13,7 9,0 11,5 73,0 3,5 45 - 0,0 0 1.017,0
23:32 13,7 9,0 11,5 73,0 3,3 31 - 0,0 0 1.017,1
23:31 13,8 9,1 11,5 73,0 2,9 15 - 0,0 0 1.017,1
23:30 13,8 9,1 11,5 73,0 2,9 21 - 0,0 0 1.017,0
23:29 13,8 9,1 11,5 73,0 3,3 21 - 0,0 0 1.017,0
23:28 13,8 9,1 11,5 73,0 3,7 26 - 0,0 0 1.017,1
23:27 13,8 9,1 11,5 73,0 3,4 39 - 0,0 0 1.017,0
23:26 13,8 9,1 11,6 73,0 3,2 50 - 0,0 0 1.017,0
23:25 13,8 9,1 11,6 73,0 3,2 23 - 0,0 0 1.017,1
23:24 13,8 9,1 11,6 73,0 3,2 36 - 0,0 0 1.017,0
23:23 13,8 9,1 11,6 73,0 3,1 51 - 0,0 0 1.017,1
23:22 13,9 9,2 11,6 73,0 3,1 36 - 0,0 0 1.017,1
23:21 13,9 9,2 11,6 73,0 3,4 47 - 0,0 0 1.017,1
23:20 13,9 9,2 11,6 73,0 3,8 47 - 0,0 0 1.017,1
23:19 13,9 9,2 11,6 73,0 3,7 38 - 0,0 0 1.017,2
23:18 13,9 9,1 11,6 72,3 3,0 52 - 0,0 0 1.017,1
23:17 13,9 9,0 11,6 72,0 2,3 85 - 0,0 0 1.017,2
23:16 13,9 9,0 11,5 72,0 2,4 12 - 0,0 0 1.017,2
23:15 13,9 9,0 11,6 72,0 3,0 33 - 0,0 0 1.017,2
23:14 13,9 9,0 11,6 72,0 3,3 45 - 0,0 0 1.017,2
23:13 13,9 9,0 11,6 72,0 3,3 42 - 0,0 0 1.017,2
23:12 13,9 9,0 11,6 72,0 3,3 30 - 0,0 0 1.017,2
23:11 13,9 9,0 11,6 72,0 3,2 39 - 0,0 0 1.017,2
23:10 14,0 9,0 11,6 72,0 2,9 47 - 0,0 0 1.017,1
23:09 14,0 9,0 11,6 72,0 2,4 38 - 0,0 0 1.017,1
23:08 14,0 9,1 11,6 72,0 2,6 24 - 0,0 0 1.017,1
23:07 14,0 9,1 11,6 72,0 2,9 36 - 0,0 0 1.017,1
23:06 14,0 8,9 11,5 71,3 3,3 29 - 0,0 0 1.017,1
23:05 14,0 8,9 11,5 71,1 3,4 43 - 0,0 0 1.017,1
23:04 14,0 9,1 11,6 71,9 3,7 32 - 0,0 0 1.017,1
23:03 14,1 8,9 11,6 71,0 3,4 38 - 0,0 0 1.017,1
23:02 14,1 9,0 11,6 71,0 3,2 19 - 0,0 0 1.017,1
23:01 14,1 9,0 11,6 71,0 3,1 27 - 0,0 0 1.017,1
23:00 14,1 9,0 11,6 71,0 3,1 48 - 0,0 0 1.017,1
 
22:59 14,1 9,0 11,6 71,0 2,9 53 - 0,0 0 1.017,1
22:58 14,1 9,0 11,6 71,0 2,9 39 - 0,0 0 1.017,1
22:57 14,1 9,0 11,6 71,0 3,4 18 - 0,0 0 1.017,1
22:56 14,2 9,1 11,7 71,0 3,5 34 - 0,0 0 1.017,1
22:55 14,2 9,1 11,7 71,0 3,3 27 - 0,0 0 1.017,1
22:54 14,2 9,1 11,7 71,0 3,2 41 - 0,0 0 1.017,1
22:53 14,2 9,1 11,7 71,0 3,2 39 - 0,0 0 1.017,2
22:52 14,2 9,1 11,7 71,0 3,0 43 - 0,0 0 1.017,2
22:51 14,2 9,1 11,7 71,0 2,8 49 - 0,0 0 1.017,2
22:50 14,3 9,1 11,7 71,0 2,7 30 - 0,0 0 1.017,2
22:49 14,3 9,1 11,7 71,0 2,7 14 - 0,0 0 1.017,2
22:48 14,3 9,2 11,8 71,0 2,5 24 - 0,0 0 1.017,2
22:47 14,3 9,2 11,8 71,0 2,7 73 - 0,0 0 1.017,2
22:46 14,3 9,2 11,8 71,0 3,2 34 - 0,0 0 1.017,2
22:45 14,3 9,2 11,8 71,0 3,6 48 - 0,0 0 1.017,2
22:44 14,3 9,2 11,8 71,0 3,4 33 - 0,0 0 1.017,2
22:43 14,3 9,0 11,7 70,3 3,0 41 - 0,0 0 1.017,2
22:42 14,3 9,0 11,7 70,0 3,0 47 - 0,0 0 1.017,2
22:41 14,3 9,0 11,7 70,0 3,3 35 - 0,0 0 1.017,2
22:40 14,4 9,0 11,7 70,0 3,5 24 - 0,0 0 1.017,2
22:39 14,4 9,0 11,7 70,0 3,6 32 - 0,0 0 1.017,2
22:38 14,4 9,1 11,8 70,0 3,7 36 - 0,0 0 1.017,2
22:37 14,4 9,1 11,8 70,0 3,7 26 - 0,0 0 1.017,2
22:36 14,4 9,1 11,8 70,0 3,7 26 - 0,0 0 1.017,2
22:35 14,4 9,1 11,8 70,0 3,7 39 - 0,0 0 1.017,2
22:34 14,5 9,1 11,8 70,0 3,4 57 - 0,0 0 1.017,2
22:33 14,5 9,2 11,8 70,0 2,9 2 - 0,0 0 1.017,2
22:32 14,5 9,2 11,9 70,0 2,8 48 - 0,0 0 1.017,3
22:31 14,5 9,2 11,9 70,0 2,7 46 - 0,0 0 1.017,3
22:30 14,6 9,2 11,9 70,0 2,4 40 - 0,0 0 1.017,3
22:29 14,6 9,2 11,9 70,0 2,2 62 - 0,0 0 1.017,2
22:28 14,6 9,2 11,9 70,0 2,4 40 - 0,0 0 1.017,2
22:27 14,6 9,2 11,9 70,0 2,8 46 - 0,0 0 1.017,3
22:26 14,6 9,2 11,9 70,0 3,0 35 - 0,0 0 1.017,2
22:25 14,6 9,3 11,9 70,0 3,2 70 - 0,0 0 1.017,2
22:24 14,6 9,3 11,9 70,0 3,1 16 - 0,0 0 1.017,3
22:23 14,6 9,1 11,8 69,0 3,0 44 - 0,0 0 1.017,2
22:22 14,6 9,1 11,8 69,0 2,7 49 - 0,0 0 1.017,2
22:21 14,7 9,1 11,9 69,0 2,8 37 - 0,0 0 1.017,2
22:20 14,7 9,1 11,9 69,0 2,9 18 - 0,0 0 1.017,2
22:19 14,7 9,1 11,9 69,0 2,9 40 - 0,0 0 1.017,3
22:18 14,7 9,1 11,9 69,0 2,7 36 - 0,0 0 1.017,3
22:17 14,7 9,2 11,9 69,0 2,5 37 - 0,0 0 1.017,2
22:16 14,7 9,2 11,9 69,0 2,6 22 - 0,0 0 1.017,2
22:15 14,7 9,2 11,9 69,0 2,7 39 - 0,0 0 1.017,2
22:14 14,7 9,2 11,9 69,0 2,6 30 - 0,0 0 1.017,2
22:13 14,8 9,2 12,0 69,0 2,6 45 - 0,0 0 1.017,2
22:12 14,8 9,2 12,0 69,0 2,6 55 - 0,0 0 1.017,2
22:11 14,8 9,2 12,0 69,0 2,3 49 - 0,0 0 1.017,2
22:10 14,8 9,2 12,0 69,0 2,3 30 - 0,0 0 1.017,2
22:09 14,8 9,2 12,0 69,0 2,5 45 - 0,0 0 1.017,2
22:08 14,8 9,2 12,0 69,0 2,7 36 - 0,0 0 1.017,2
22:07 14,8 9,3 12,0 69,0 2,7 46 - 0,0 0 1.017,2
22:06 14,9 9,1 11,9 68,1 2,7 28 - 0,0 0 1.017,2
22:05 14,9 9,1 11,9 68,0 2,6 19 - 0,0 0 1.017,2
22:04 14,9 9,1 12,0 68,0 2,4 33 - 0,0 0 1.017,2
22:03 14,9 9,1 12,0 68,0 2,4 27 - 0,0 0 1.017,2
22:02 14,9 9,1 12,0 68,0 2,4 33 - 0,0 0 1.017,2
22:01 14,9 9,1 12,0 68,0 2,3 32 - 0,0 0 1.017,2
22:00 14,9 9,1 12,0 68,0 2,3 32 - 0,0 0 1.017,2
 
21:59 14,9 9,1 12,0 68,0 2,5 57 - 0,0 0 1.017,2
21:58 14,9 9,2 12,0 68,0 2,8 54 - 0,0 0 1.017,2
21:57 15,0 9,2 12,0 68,0 2,9 48 - 0,0 0 1.017,2
21:56 15,0 9,2 12,1 68,0 2,9 50 - 0,0 0 1.017,2
21:55 15,0 9,2 12,1 68,0 2,8 56 - 0,0 0 1.017,2
21:54 15,0 9,2 12,1 68,0 2,6 41 - 0,0 0 1.017,2
21:53 15,0 9,3 12,1 68,0 2,6 39 - 0,0 0 1.017,2
21:52 15,1 9,3 12,1 68,0 2,9 33 - 0,0 0 1.017,2
21:51 15,1 9,3 12,1 68,0 2,8 20 - 0,0 0 1.017,2
21:50 15,1 9,3 12,1 68,0 2,6 37 - 0,0 0 1.017,2
21:49 15,1 9,3 12,1 68,0 2,7 66 - 0,0 0 1.017,2
21:48 15,1 9,3 12,2 68,0 2,7 41 - 0,0 0 1.017,2
21:47 15,1 9,3 12,2 68,0 2,6 53 - 0,0 0 1.017,2
21:46 15,1 9,3 12,2 68,0 2,6 22 - 0,0 0 1.017,2
21:45 15,2 9,4 12,2 68,0 2,8 53 - 0,0 0 1.017,1
21:44 15,2 9,4 12,2 68,0 3,0 35 - 0,0 0 1.017,1
21:43 15,2 9,6 12,3 68,9 2,9 60 - 0,0 0 1.017,1
21:42 15,2 9,6 12,3 69,0 2,5 28 - 0,0 0 1.017,1
21:41 15,2 9,6 12,3 69,0 2,5 17 - 0,0 0 1.017,1
21:40 15,2 9,6 12,4 69,0 2,6 30 - 0,0 0 1.017,1
21:39 15,2 9,6 12,4 69,0 2,9 43 - 0,0 0 1.017,1
21:38 15,2 9,6 12,4 69,0 3,1 34 - 0,0 0 1.017,1
21:37 15,2 9,6 12,4 69,0 2,9 34 - 0,0 0 1.017,1
21:36 15,2 9,7 12,4 69,0 2,6 18 - 0,0 0 1.017,1
21:35 15,2 9,7 12,5 69,4 2,6 16 - 0,0 0 1.017,1
21:34 15,3 9,9 12,6 70,0 2,7 32 - 0,0 0 1.017,1
21:33 15,3 9,9 12,6 70,0 2,4 41 - 0,0 0 1.017,0
21:32 15,3 9,9 12,6 70,0 2,6 6 - 0,0 0 1.017,0
21:31 15,3 9,9 12,6 70,0 3,0 21 - 0,0 0 1.017,1
21:30 15,3 9,9 12,6 70,0 3,2 31 - 0,0 0 1.017,1
21:29 15,3 9,9 12,6 70,0 3,4 47 - 0,0 0 1.017,0
21:28 15,3 9,9 12,6 70,0 3,5 42 - 0,0 0 1.017,0
21:27 15,3 9,9 12,6 70,0 3,4 16 - 0,0 0 1.016,9
21:26 15,3 10,0 12,6 70,0 3,4 13 - 0,0 0 1.016,9
21:25 15,3 10,0 12,6 70,0 3,0 17 - 0,0 0 1.016,9
21:24 15,3 10,0 12,6 70,0 3,1 82 - 0,0 0 1.017,0
21:23 15,3 10,0 12,6 70,0 3,1 41 - 0,0 0 1.017,0
21:22 15,3 10,0 12,6 70,0 3,2 13 - 0,0 0 1.016,9
21:21 15,3 10,0 12,6 70,0 3,3 355 - 0,0 0 1.016,9
21:20 15,3 10,0 12,6 70,0 3,2 338 - 0,0 0 1.016,8
21:19 15,3 9,8 12,5 69,1 3,1 30 - 0,0 2 1.016,9
21:18 15,4 9,8 12,6 69,0 3,3 330 - 0,0 5 1.016,9
21:17 15,4 9,8 12,6 69,0 3,7 336 - 0,0 5 1.016,8
21:16 15,4 9,8 12,6 69,0 3,7 355 - 0,0 5 1.016,8
21:15 15,4 9,8 12,6 69,0 3,5 17 - 0,0 5 1.016,8
21:14 15,4 9,8 12,6 69,0 3,4 359 - 0,0 6 1.016,8
21:13 15,4 9,6 12,5 68,1 3,4 36 - 0,0 7 1.016,8
21:12 15,4 9,6 12,5 68,0 3,9 32 - 0,0 7 1.016,8
21:11 15,5 9,7 12,5 68,5 4,2 9 - 0,0 7 1.016,8
21:10 15,5 9,8 12,6 68,4 4,5 3 - 0,0 7 1.016,8
21:09 15,5 9,7 12,6 68,0 4,4 14 - 0,0 7 1.016,8
21:08 15,6 9,9 12,7 68,9 4,2 355 - 0,0 9 1.016,8
21:07 15,6 9,8 12,6 68,1 3,8 350 - 0,0 9 1.016,8
21:06 15,6 9,8 12,6 68,0 3,5 48 - 0,0 10 1.016,8
21:05 15,6 9,8 12,7 68,0 3,7 345 - 0,0 11 1.016,8
21:04 15,7 9,9 12,7 68,0 4,2 350 - 0,0 11 1.016,8
21:03 15,7 9,9 12,7 68,0 4,4 5 - 0,0 11 1.016,8
21:02 15,8 9,9 12,8 68,0 4,3 355 - 0,0 12 1.016,7
21:01 15,8 9,8 12,7 67,0 4,1 355 - 0,0 12 1.016,7
21:00 15,8 9,8 12,7 67,0 4,1 326 - 0,0 12 1.016,7
 
20:59 15,9 9,7 12,7 66,6 4,3 6 - 0,0 14 1.016,7
20:58 15,9 9,6 12,6 66,0 4,5 329 - 0,0 14 1.016,7
20:57 15,9 9,7 12,7 66,0 4,7 345 - 0,0 15 1.016,7
20:56 16,0 9,7 12,7 66,0 4,3 336 - 0,0 16 1.016,7
20:55 16,0 9,5 12,6 65,0 3,8 12 - 0,0 17 1.016,8
20:54 16,1 9,7 12,7 65,4 3,8 355 - 0,0 18 1.016,8
20:53 16,1 9,8 12,8 66,0 3,9 355 - 0,0 19 1.016,8
20:52 16,1 9,9 12,9 66,0 3,8 355 - 0,0 19 1.016,8
20:51 16,2 9,9 12,9 66,0 3,6 345 - 0,0 19 1.016,8
20:50 16,2 9,9 12,9 66,0 3,4 345 - 0,0 20 1.016,8
20:49 16,2 9,7 12,8 65,0 3,0 29 - 0,0 21 1.016,7
20:48 16,2 9,7 12,8 65,0 3,0 317 - 0,0 22 1.016,7
20:47 16,2 9,7 12,8 65,0 3,4 350 - 0,0 23 1.016,7
20:46 16,3 9,8 12,8 65,0 3,7 0 - 0,0 25 1.016,7
20:45 16,3 9,8 12,9 65,0 3,6 355 - 0,0 25 1.016,7
20:44 16,3 9,8 12,9 65,0 3,4 0 - 0,0 26 1.016,7
20:43 16,3 9,8 12,9 65,0 3,2 7 - 0,0 27 1.016,7
20:42 16,3 9,8 12,9 65,0 2,9 350 - 0,0 28 1.016,7
20:41 16,3 9,8 12,9 65,0 2,8 15 - 0,0 30 1.016,7
20:40 16,3 9,8 12,9 65,0 2,7 355 - 0,0 30 1.016,7
20:39 16,3 9,8 12,9 65,0 2,8 45 - 0,0 33 1.016,7
20:38 16,3 9,7 12,8 64,9 2,9 40 - 0,0 33 1.016,7
20:37 16,3 9,5 12,7 64,0 2,8 53 - 0,0 34 1.016,7
20:36 16,3 9,6 12,8 64,4 2,7 18 - 0,0 35 1.016,7
20:35 16,3 9,8 12,9 65,0 2,9 355 - 0,0 37 1.016,7
20:34 16,3 9,8 12,8 65,0 3,0 8 - 0,0 39 1.016,7
20:33 16,3 9,8 12,9 65,0 2,9 4 - 0,0 39 1.016,7
20:32 16,3 9,8 12,9 65,0 2,9 46 - 0,0 40 1.016,7
20:31 16,3 9,8 12,9 65,0 2,8 31 - 0,0 41 1.016,7
20:30 16,3 9,8 12,9 65,0 2,9 1 - 0,0 44 1.016,7
20:29 16,3 9,8 12,9 65,0 3,0 20 - 0,0 46 1.016,7
20:28 16,3 9,8 12,9 65,0 3,1 28 - 0,0 47 1.016,7
20:27 16,3 9,6 12,7 64,0 3,4 9 - 0,0 48 1.016,8
20:26 16,3 9,6 12,8 64,0 3,1 20 - 0,0 50 1.016,8
20:25 16,3 9,6 12,8 64,0 2,9 332 - 0,0 52 1.016,8
20:24 16,3 9,6 12,8 64,0 3,0 1 - 0,0 54 1.016,7
20:23 16,3 9,7 12,9 64,6 3,1 359 - 0,0 56 1.016,7
20:22 16,4 9,7 12,8 64,3 3,1 340 - 0,0 56 1.016,7
20:21 16,4 9,4 12,7 63,1 3,2 345 - 0,0 59 1.016,7
20:20 16,4 9,4 12,7 63,0 3,7 322 - 0,0 61 1.016,7
20:19 16,4 9,4 12,7 63,0 3,2 350 - 0,0 63 1.016,7
20:18 16,4 9,6 12,8 63,5 3,4 32 - 0,0 65 1.016,7
20:17 16,5 9,7 12,9 64,0 4,0 350 - 0,0 67 1.016,6
20:16 16,5 9,7 12,9 64,0 3,2 345 - 0,0 69 1.016,6
20:15 16,4 9,7 12,9 64,0 2,6 355 - 0,0 71 1.016,7
20:14 16,5 9,5 12,8 63,0 2,4 355 - 0,0 73 1.016,7
20:13 16,4 9,5 12,7 63,0 3,4 327 - 0,0 75 1.016,7
20:12 16,5 9,5 12,7 63,0 3,1 345 - 0,0 77 1.016,7
20:11 16,5 9,5 12,8 63,0 3,1 337 - 0,0 79 1.016,7
20:10 16,5 9,7 12,9 63,8 3,4 355 - 0,0 82 1.016,7
20:09 16,5 9,7 12,9 64,0 2,6 339 - 0,0 84 1.016,7
20:08 16,5 9,7 12,9 64,0 3,5 34 - 0,0 87 1.016,7
20:07 16,5 9,8 12,9 64,0 2,8 345 - 0,0 90 1.016,7
20:06 16,5 9,8 12,9 64,0 2,3 355 - 0,0 91 1.016,7